<?xml version="1.0" encoding="UTF-8" standalone="no" ?>
<gpx xmlns="http://www.topografix.com/GPX/1/1" xmlns:xsi="http://www.w3.org/2001/XMLSchema-instance" xsi:schemaLocation="http://www.topografix.com/GPX/1/1 http://www.topografix.com/GPX/1/1/gpx.xsd" version="1.1" creator="VisuGPX - https://www.visugpx.com">
  <metadata>
    <name>Moissac _ Aire sur l'Ardour</name>
    <desc><![CDATA[GR25]]></desc>
  </metadata>
  <wpt lat="44.09542" lon="1.00183">
    <ele>100.2</ele>
    <name><![CDATA[Chambre Pugnal]]></name>
    <type><![CDATA[hotel]]></type>
  </wpt>
  <wpt lat="44.00962" lon="0.80449">
    <ele>114</ele>
  </wpt>
  <trk>
    <name><![CDATA[Moissac _ Aire sur l'Ardour_1]]></name>
    <extensions>
      <line xmlns="http://www.topografix.com/GPX/gpx_style/0/2">
        <color>0000FF</color>
        <width>4</width>
      </line>
    </extensions>
    <trkseg>
      <trkpt lat="44.10413" lon="1.08796">
        <ele>75.294</ele>
        <time>2016-09-26T18:15:46Z</time>
      </trkpt>
      <trkpt lat="44.10401" lon="1.08699">
        <ele>76.941</ele>
        <time>2016-09-26T18:16:06Z</time>
      </trkpt>
      <trkpt lat="44.10412" lon="1.08577">
        <ele>76.79</ele>
        <time>2016-09-26T18:16:26Z</time>
      </trkpt>
      <trkpt lat="44.10387" lon="1.08489">
        <ele>78.369</ele>
        <time>2021-01-03T09:22:20Z</time>
      </trkpt>
      <trkpt lat="44.10274" lon="1.08559">
        <ele>77.845</ele>
        <time>2019-03-30T16:39:28Z</time>
      </trkpt>
      <trkpt lat="44.10197" lon="1.08677">
        <ele>74.066</ele>
        <time>2019-03-30T16:39:48Z</time>
      </trkpt>
      <trkpt lat="44.10163" lon="1.08771">
        <ele>72.549</ele>
        <time>2019-03-30T16:40:08Z</time>
      </trkpt>
      <trkpt lat="44.1001" lon="1.0868">
        <ele>69.878</ele>
        <time>2021-01-03T09:23:40Z</time>
      </trkpt>
      <trkpt lat="44.09955" lon="1.086">
        <ele>66.886</ele>
        <time>2021-01-03T09:24:00Z</time>
      </trkpt>
      <trkpt lat="44.09955" lon="1.08559">
        <ele>67.16</ele>
        <time>2021-01-03T09:24:20Z</time>
      </trkpt>
      <trkpt lat="44.09974" lon="1.08545">
        <ele>69.426</ele>
        <time>2021-01-03T09:24:40Z</time>
      </trkpt>
      <trkpt lat="44.09961" lon="1.08405">
        <ele>68.608</ele>
        <time>2021-01-03T09:25:00Z</time>
      </trkpt>
      <trkpt lat="44.09959" lon="1.08269">
        <ele>67.674</ele>
        <time>2019-03-30T16:41:28Z</time>
      </trkpt>
      <trkpt lat="44.09977" lon="1.08153">
        <ele>71.381</ele>
        <time>2019-03-30T16:41:48Z</time>
      </trkpt>
      <trkpt lat="44.09993" lon="1.07804">
        <ele>68.33</ele>
        <time>2019-03-30T16:42:08Z</time>
      </trkpt>
      <trkpt lat="44.10054" lon="1.07812">
        <ele>69.089</ele>
        <time>2019-03-30T16:42:28Z</time>
      </trkpt>
      <trkpt lat="44.10084" lon="1.07792">
        <ele>70.025</ele>
        <time>2019-03-30T16:42:48Z</time>
      </trkpt>
      <trkpt lat="44.10083" lon="1.07397">
        <ele>70.096</ele>
        <time>2016-09-26T18:20:26Z</time>
      </trkpt>
      <trkpt lat="44.10051" lon="1.07195">
        <ele>73.869</ele>
        <time>2016-09-26T18:20:46Z</time>
      </trkpt>
      <trkpt lat="44.09942" lon="1.06877">
        <ele>65.018</ele>
        <time>2016-09-26T18:21:06Z</time>
      </trkpt>
      <trkpt lat="44.09845" lon="1.06676">
        <ele>71.013</ele>
        <time>2016-09-26T18:21:26Z</time>
      </trkpt>
      <trkpt lat="44.0966" lon="1.06407">
        <ele>67.543</ele>
        <time>2016-09-26T18:21:46Z</time>
      </trkpt>
      <trkpt lat="44.09596" lon="1.06279">
        <ele>68.907</ele>
        <time>2016-09-26T18:22:06Z</time>
      </trkpt>
      <trkpt lat="44.09556" lon="1.06124">
        <ele>68.008</ele>
        <time>2016-09-26T18:22:26Z</time>
      </trkpt>
      <trkpt lat="44.09521" lon="1.05729">
        <ele>72.027</ele>
        <time>2016-09-26T18:22:46Z</time>
      </trkpt>
      <trkpt lat="44.09487" lon="1.05543">
        <ele>71.094</ele>
        <time>2016-09-26T18:23:06Z</time>
      </trkpt>
      <trkpt lat="44.09405" lon="1.05296">
        <ele>69.993</ele>
        <time>2016-09-26T18:23:26Z</time>
      </trkpt>
      <trkpt lat="44.09298" lon="1.05108">
        <ele>68.792</ele>
        <time>2019-03-30T16:46:28Z</time>
      </trkpt>
      <trkpt lat="44.09371" lon="1.05045">
        <ele>79.748</ele>
        <time>2019-03-30T16:46:48Z</time>
      </trkpt>
      <trkpt lat="44.09481" lon="1.05261">
        <ele>74.979</ele>
        <time>2019-03-30T16:47:08Z</time>
      </trkpt>
      <trkpt lat="44.09521" lon="1.05294">
        <ele>72.982</ele>
        <time>2019-03-30T16:47:28Z</time>
      </trkpt>
      <trkpt lat="44.09535" lon="1.05315">
        <ele>73.231</ele>
        <time>2021-01-03T09:31:40Z</time>
      </trkpt>
      <trkpt lat="44.09547" lon="1.05253">
        <ele>77.676</ele>
        <time>2021-01-03T09:32:00Z</time>
      </trkpt>
      <trkpt lat="44.09554" lon="1.0517">
        <ele>78.49</ele>
        <time>2021-01-03T09:32:20Z</time>
      </trkpt>
      <trkpt lat="44.09568" lon="1.05109">
        <ele>81.119</ele>
        <time>2021-01-03T09:32:40Z</time>
      </trkpt>
      <trkpt lat="44.09593" lon="1.05026">
        <ele>78.608</ele>
        <time>2021-01-03T09:33:00Z</time>
      </trkpt>
      <trkpt lat="44.09645" lon="1.04931">
        <ele>82.183</ele>
        <time>2021-01-03T09:33:20Z</time>
      </trkpt>
      <trkpt lat="44.09683" lon="1.04801">
        <ele>86.39</ele>
        <time>2021-01-03T09:33:40Z</time>
      </trkpt>
      <trkpt lat="44.09753" lon="1.04612">
        <ele>84.139</ele>
        <time>2021-01-03T09:34:00Z</time>
      </trkpt>
      <trkpt lat="44.09816" lon="1.04416">
        <ele>86.628</ele>
        <time>2021-01-03T09:34:20Z</time>
      </trkpt>
      <trkpt lat="44.09859" lon="1.04363">
        <ele>87.284</ele>
        <time>2021-01-03T09:34:40Z</time>
      </trkpt>
      <trkpt lat="44.09905" lon="1.04318">
        <ele>88.635</ele>
        <time>2021-01-03T09:35:00Z</time>
      </trkpt>
      <trkpt lat="44.09926" lon="1.04259">
        <ele>90.878</ele>
        <time>2021-01-03T09:35:20Z</time>
      </trkpt>
      <trkpt lat="44.09944" lon="1.04179">
        <ele>92.297</ele>
        <time>2021-01-03T09:35:40Z</time>
      </trkpt>
      <trkpt lat="44.09967" lon="1.04149">
        <ele>91.462</ele>
        <time>2021-01-03T09:36:00Z</time>
      </trkpt>
      <trkpt lat="44.09954" lon="1.04129">
        <ele>93.583</ele>
        <time>2021-01-03T09:36:20Z</time>
      </trkpt>
      <trkpt lat="44.09909" lon="1.04159">
        <ele>102.211</ele>
        <time>2021-01-03T09:36:40Z</time>
      </trkpt>
      <trkpt lat="44.09882" lon="1.04101">
        <ele>109.308</ele>
        <time>2021-01-03T09:37:00Z</time>
      </trkpt>
      <trkpt lat="44.09858" lon="1.0398">
        <ele>123.512</ele>
        <time>2021-01-03T09:37:20Z</time>
      </trkpt>
      <trkpt lat="44.09881" lon="1.03936">
        <ele>128.929</ele>
        <time>2021-01-03T09:37:40Z</time>
      </trkpt>
      <trkpt lat="44.09861" lon="1.03791">
        <ele>142.558</ele>
        <time>2021-01-03T09:38:00Z</time>
      </trkpt>
      <trkpt lat="44.09816" lon="1.03695">
        <ele>152.357</ele>
        <time>2021-01-03T09:38:20Z</time>
      </trkpt>
      <trkpt lat="44.0971" lon="1.03654">
        <ele>163.773</ele>
        <time>2021-01-03T09:38:40Z</time>
      </trkpt>
      <trkpt lat="44.09616" lon="1.03585">
        <ele>173.134</ele>
        <time>2021-01-03T09:39:00Z</time>
      </trkpt>
      <trkpt lat="44.09636" lon="1.03504">
        <ele>173.377</ele>
        <time>2019-03-30T16:55:28Z</time>
      </trkpt>
      <trkpt lat="44.09676" lon="1.03239">
        <ele>170.096</ele>
        <time>2019-03-30T16:55:48Z</time>
      </trkpt>
      <trkpt lat="44.09737" lon="1.03254">
        <ele>170.681</ele>
        <time>2021-01-03T09:40:00Z</time>
      </trkpt>
      <trkpt lat="44.09769" lon="1.03246">
        <ele>165.661</ele>
        <time>2019-03-30T16:56:08Z</time>
      </trkpt>
      <trkpt lat="44.09785" lon="1.02971">
        <ele>128.917</ele>
        <time>2019-03-30T16:56:28Z</time>
      </trkpt>
      <trkpt lat="44.09774" lon="1.02917">
        <ele>124.008</ele>
        <time>2019-03-30T16:56:48Z</time>
      </trkpt>
      <trkpt lat="44.09733" lon="1.02865">
        <ele>124.614</ele>
        <time>2019-03-30T16:57:08Z</time>
      </trkpt>
      <trkpt lat="44.09712" lon="1.02788">
        <ele>129.691</ele>
        <time>2019-03-30T16:57:28Z</time>
      </trkpt>
      <trkpt lat="44.09674" lon="1.02762">
        <ele>136.91</ele>
        <time>2019-03-30T16:57:48Z</time>
      </trkpt>
      <trkpt lat="44.09677" lon="1.02704">
        <ele>127.729</ele>
        <time>2019-03-30T16:58:08Z</time>
      </trkpt>
      <trkpt lat="44.09753" lon="1.02734">
        <ele>115.695</ele>
        <time>2019-03-30T16:58:28Z</time>
      </trkpt>
      <trkpt lat="44.09773" lon="1.0271">
        <ele>110.436</ele>
        <time>2019-03-30T16:58:48Z</time>
      </trkpt>
      <trkpt lat="44.0976" lon="1.02537">
        <ele>100.679</ele>
        <time>2019-03-30T16:59:08Z</time>
      </trkpt>
      <trkpt lat="44.09789" lon="1.02514">
        <ele>98.068</ele>
        <time>2019-03-30T16:59:28Z</time>
      </trkpt>
      <trkpt lat="44.09804" lon="1.0238">
        <ele>113.524</ele>
        <time>2019-03-30T16:59:48Z</time>
      </trkpt>
      <trkpt lat="44.09788" lon="1.02272">
        <ele>132.904</ele>
        <time>2019-03-30T17:00:08Z</time>
      </trkpt>
      <trkpt lat="44.09794" lon="1.0215">
        <ele>153.214</ele>
        <time>2019-03-30T17:00:28Z</time>
      </trkpt>
      <trkpt lat="44.09865" lon="1.01955">
        <ele>163.608</ele>
        <time>2019-03-30T17:00:48Z</time>
      </trkpt>
      <trkpt lat="44.09806" lon="1.01931">
        <ele>161.598</ele>
        <time>2019-03-30T17:01:08Z</time>
      </trkpt>
      <trkpt lat="44.09729" lon="1.01835">
        <ele>161.155</ele>
        <time>2019-03-30T17:01:28Z</time>
      </trkpt>
      <trkpt lat="44.09712" lon="1.01775">
        <ele>163.414</ele>
        <time>2019-03-30T17:01:48Z</time>
      </trkpt>
      <trkpt lat="44.097" lon="1.01676">
        <ele>172.073</ele>
        <time>2019-03-30T17:02:08Z</time>
      </trkpt>
      <trkpt lat="44.09647" lon="1.0153">
        <ele>172.359</ele>
        <time>2019-03-30T17:02:28Z</time>
      </trkpt>
      <trkpt lat="44.0961" lon="1.01451">
        <ele>173.04</ele>
        <time>2019-03-30T17:02:48Z</time>
      </trkpt>
      <trkpt lat="44.0963" lon="1.01322">
        <ele>175.833</ele>
        <time>2019-03-30T17:03:08Z</time>
      </trkpt>
      <trkpt lat="44.0965" lon="1.01341">
        <ele>174.532</ele>
        <time>2019-03-30T17:03:28Z</time>
      </trkpt>
      <trkpt lat="44.09689" lon="1.01343">
        <ele>170.891</ele>
        <time>2019-03-30T17:03:48Z</time>
      </trkpt>
      <trkpt lat="44.09743" lon="1.01261">
        <ele>165.281</ele>
        <time>2019-03-30T17:04:08Z</time>
      </trkpt>
      <trkpt lat="44.09778" lon="1.01211">
        <ele>160.319</ele>
        <time>2019-03-30T17:04:28Z</time>
      </trkpt>
      <trkpt lat="44.09844" lon="1.01097">
        <ele>142.708</ele>
        <time>2019-03-30T17:04:48Z</time>
      </trkpt>
      <trkpt lat="44.099" lon="1.01035">
        <ele>134.825</ele>
        <time>2019-03-30T17:05:08Z</time>
      </trkpt>
      <trkpt lat="44.09964" lon="1.00874">
        <ele>115.872</ele>
        <time>2019-03-30T17:05:28Z</time>
      </trkpt>
      <trkpt lat="44.10098" lon="1.00717">
        <ele>96.111</ele>
        <time>2019-03-30T17:05:48Z</time>
      </trkpt>
      <trkpt lat="44.0998" lon="1.00526">
        <ele>93.67</ele>
        <time>2019-03-30T17:06:08Z</time>
      </trkpt>
      <trkpt lat="44.09918" lon="1.00461">
        <ele>90.566</ele>
        <time>2019-03-30T17:06:28Z</time>
      </trkpt>
      <trkpt lat="44.09869" lon="1.0035">
        <ele>90.557</ele>
        <time>2019-03-30T17:06:48Z</time>
      </trkpt>
      <trkpt lat="44.09786" lon="1.00254">
        <ele>93.85</ele>
        <time>2019-03-30T17:07:08Z</time>
      </trkpt>
      <trkpt lat="44.09702" lon="1.00191">
        <ele>87.229</ele>
        <time>2019-03-30T17:07:28Z</time>
      </trkpt>
      <trkpt lat="44.09686" lon="1.00123">
        <ele>85.582</ele>
        <time>2019-03-30T17:07:48Z</time>
      </trkpt>
      <trkpt lat="44.09482" lon="0.99853">
        <ele>82.7</ele>
      </trkpt>
      <trkpt lat="44.0947" lon="0.99875">
        <ele>83.7</ele>
      </trkpt>
      <trkpt lat="44.09511" lon="0.99945">
        <ele>85.3</ele>
      </trkpt>
      <trkpt lat="44.09544" lon="1.00033">
        <ele>87.9</ele>
      </trkpt>
      <trkpt lat="44.09501" lon="1.00139">
        <ele>98</ele>
      </trkpt>
      <trkpt lat="44.09538" lon="1.00183">
        <ele>100.2</ele>
        <time>2019-03-30T17:08:08Z</time>
      </trkpt>
    </trkseg>
  </trk>
  <trk>
    <name><![CDATA[Moissac _ Aire sur l'Ardour_2]]></name>
    <extensions>
      <line xmlns="http://www.topografix.com/GPX/gpx_style/0/2">
        <color>00FF00</color>
        <width>4</width>
      </line>
    </extensions>
    <trkseg>
      <trkpt lat="44.09543" lon="1.00207">
        <ele>103.4</ele>
        <time>2019-03-30T17:08:08Z</time>
      </trkpt>
      <trkpt lat="44.09496" lon="1.00152">
        <ele>99.2</ele>
      </trkpt>
      <trkpt lat="44.09528" lon="1.00043">
        <ele>90</ele>
      </trkpt>
      <trkpt lat="44.09532" lon="1.00025">
        <ele>88.6</ele>
      </trkpt>
      <trkpt lat="44.09508" lon="0.99964">
        <ele>86.6</ele>
      </trkpt>
      <trkpt lat="44.0946" lon="0.99856">
        <ele>82.8</ele>
      </trkpt>
      <trkpt lat="44.09458" lon="0.99787">
        <ele>82.1</ele>
      </trkpt>
      <trkpt lat="44.09473" lon="0.9975">
        <ele>79.117</ele>
        <time>2019-03-30T17:08:28Z</time>
      </trkpt>
      <trkpt lat="44.09541" lon="0.99644">
        <ele>89.708</ele>
        <time>2019-03-30T17:08:48Z</time>
      </trkpt>
      <trkpt lat="44.09614" lon="0.99485">
        <ele>96.054</ele>
        <time>2019-03-30T17:09:08Z</time>
      </trkpt>
      <trkpt lat="44.09684" lon="0.99226">
        <ele>134.481</ele>
        <time>2019-03-30T17:09:28Z</time>
      </trkpt>
      <trkpt lat="44.09714" lon="0.99172">
        <ele>144.26</ele>
        <time>2019-03-30T17:09:48Z</time>
      </trkpt>
      <trkpt lat="44.09761" lon="0.99013">
        <ele>168.039</ele>
        <time>2019-03-30T17:10:08Z</time>
      </trkpt>
      <trkpt lat="44.09798" lon="0.98989">
        <ele>174.545</ele>
        <time>2019-03-30T17:10:28Z</time>
      </trkpt>
      <trkpt lat="44.09835" lon="0.98936">
        <ele>176.916</ele>
        <time>2019-03-30T17:10:48Z</time>
      </trkpt>
      <trkpt lat="44.09805" lon="0.98879">
        <ele>182.179</ele>
        <time>2019-03-30T17:11:08Z</time>
      </trkpt>
      <trkpt lat="44.09729" lon="0.98832">
        <ele>181.198</ele>
        <time>2019-03-30T17:11:28Z</time>
      </trkpt>
      <trkpt lat="44.09607" lon="0.98851">
        <ele>181.153</ele>
        <time>2019-03-30T17:11:48Z</time>
      </trkpt>
      <trkpt lat="44.09507" lon="0.98793">
        <ele>171.904</ele>
        <time>2019-03-30T17:12:08Z</time>
      </trkpt>
      <trkpt lat="44.09329" lon="0.98717">
        <ele>162.614</ele>
        <time>2019-03-30T17:12:28Z</time>
      </trkpt>
      <trkpt lat="44.09219" lon="0.98539">
        <ele>161.008</ele>
        <time>2019-03-30T17:12:48Z</time>
      </trkpt>
      <trkpt lat="44.09271" lon="0.98283">
        <ele>141.341</ele>
        <time>2019-03-30T17:13:08Z</time>
      </trkpt>
      <trkpt lat="44.09259" lon="0.98192">
        <ele>133.678</ele>
        <time>2019-03-30T17:13:28Z</time>
      </trkpt>
      <trkpt lat="44.09207" lon="0.9807">
        <ele>121.327</ele>
        <time>2019-03-30T17:13:48Z</time>
      </trkpt>
      <trkpt lat="44.09172" lon="0.98025">
        <ele>116.536</ele>
        <time>2019-03-30T17:14:08Z</time>
      </trkpt>
      <trkpt lat="44.09139" lon="0.97915">
        <ele>105.912</ele>
        <time>2019-03-30T17:14:28Z</time>
      </trkpt>
      <trkpt lat="44.09088" lon="0.97843">
        <ele>102.943</ele>
        <time>2019-03-30T17:14:48Z</time>
      </trkpt>
      <trkpt lat="44.09019" lon="0.97784">
        <ele>92.976</ele>
        <time>2019-03-30T17:15:08Z</time>
      </trkpt>
      <trkpt lat="44.09029" lon="0.97713">
        <ele>92.285</ele>
        <time>2019-03-30T17:15:28Z</time>
      </trkpt>
      <trkpt lat="44.08989" lon="0.97601">
        <ele>92.011</ele>
        <time>2019-03-30T17:15:48Z</time>
      </trkpt>
      <trkpt lat="44.08993" lon="0.97561">
        <ele>91.921</ele>
        <time>2019-03-30T17:16:08Z</time>
      </trkpt>
      <trkpt lat="44.0903" lon="0.97545">
        <ele>96.503</ele>
        <time>2019-03-30T17:16:28Z</time>
      </trkpt>
      <trkpt lat="44.09139" lon="0.97233">
        <ele>78.408</ele>
        <time>2019-03-30T17:16:48Z</time>
      </trkpt>
      <trkpt lat="44.09054" lon="0.97268">
        <ele>82.297</ele>
        <time>2019-03-30T17:17:08Z</time>
      </trkpt>
      <trkpt lat="44.09" lon="0.9727">
        <ele>77.714</ele>
        <time>2019-03-30T17:17:28Z</time>
      </trkpt>
      <trkpt lat="44.0902" lon="0.97195">
        <ele>74.763</ele>
        <time>2019-03-30T17:17:48Z</time>
      </trkpt>
      <trkpt lat="44.08983" lon="0.97157">
        <ele>68.012</ele>
        <time>2019-03-30T17:18:08Z</time>
      </trkpt>
      <trkpt lat="44.08964" lon="0.97094">
        <ele>66.618</ele>
        <time>2019-03-30T17:18:28Z</time>
      </trkpt>
      <trkpt lat="44.08883" lon="0.9697">
        <ele>65.149</ele>
        <time>2019-03-30T17:18:48Z</time>
      </trkpt>
      <trkpt lat="44.08806" lon="0.96925">
        <ele>67.842</ele>
        <time>2019-03-30T17:19:08Z</time>
      </trkpt>
      <trkpt lat="44.08838" lon="0.96848">
        <ele>76.271</ele>
        <time>2016-09-26T18:33:26Z</time>
      </trkpt>
      <trkpt lat="44.09239" lon="0.95447">
        <ele>70.334</ele>
        <time>2016-09-26T18:33:46Z</time>
      </trkpt>
      <trkpt lat="44.09239" lon="0.95447">
        <ele>70.355</ele>
        <time>2016-09-26T18:34:06Z</time>
      </trkpt>
      <trkpt lat="44.09393" lon="0.94865">
        <ele>77.21</ele>
        <time>2016-09-26T18:34:26Z</time>
      </trkpt>
      <trkpt lat="44.09685" lon="0.9343">
        <ele>70.108</ele>
        <time>2021-01-03T10:05:00Z</time>
      </trkpt>
      <trkpt lat="44.09824" lon="0.9349">
        <ele>65.229</ele>
        <time>2021-01-03T10:05:20Z</time>
      </trkpt>
      <trkpt lat="44.09942" lon="0.93482">
        <ele>67.836</ele>
        <time>2021-01-03T10:05:40Z</time>
      </trkpt>
      <trkpt lat="44.09938" lon="0.93389">
        <ele>69.295</ele>
        <time>2021-01-03T10:06:00Z</time>
      </trkpt>
      <trkpt lat="44.0995" lon="0.93359">
        <ele>71.664</ele>
        <time>2021-01-03T10:06:20Z</time>
      </trkpt>
      <trkpt lat="44.09991" lon="0.93326">
        <ele>73.34</ele>
        <time>2021-01-03T10:06:40Z</time>
      </trkpt>
      <trkpt lat="44.10029" lon="0.93267">
        <ele>72.091</ele>
        <time>2021-01-03T10:07:00Z</time>
      </trkpt>
      <trkpt lat="44.09995" lon="0.93218">
        <ele>73.134</ele>
        <time>2021-01-03T10:07:20Z</time>
      </trkpt>
      <trkpt lat="44.09968" lon="0.93217">
        <ele>72.973</ele>
        <time>2021-01-03T10:07:40Z</time>
      </trkpt>
      <trkpt lat="44.09956" lon="0.93157">
        <ele>73.446</ele>
        <time>2021-01-03T10:08:00Z</time>
      </trkpt>
      <trkpt lat="44.09974" lon="0.93037">
        <ele>70.488</ele>
        <time>2021-01-03T10:08:20Z</time>
      </trkpt>
      <trkpt lat="44.09993" lon="0.92858">
        <ele>71.316</ele>
        <time>2021-01-03T10:08:40Z</time>
      </trkpt>
      <trkpt lat="44.09533" lon="0.9267">
        <ele>61.308</ele>
        <time>2016-09-26T18:35:46Z</time>
      </trkpt>
      <trkpt lat="44.09507" lon="0.92692">
        <ele>60.47</ele>
        <time>2016-09-26T18:36:06Z</time>
      </trkpt>
      <trkpt lat="44.09472" lon="0.92649">
        <ele>59.087</ele>
        <time>2016-09-26T18:36:26Z</time>
      </trkpt>
      <trkpt lat="44.09402" lon="0.92617">
        <ele>59.516</ele>
        <time>2016-09-26T18:36:46Z</time>
      </trkpt>
      <trkpt lat="44.09308" lon="0.9252">
        <ele>61.035</ele>
        <time>2016-09-26T18:37:06Z</time>
      </trkpt>
      <trkpt lat="44.09234" lon="0.92361">
        <ele>60.441</ele>
        <time>2016-09-26T18:37:26Z</time>
      </trkpt>
      <trkpt lat="44.0917" lon="0.92241">
        <ele>58.982</ele>
        <time>2016-09-26T18:37:46Z</time>
      </trkpt>
      <trkpt lat="44.08995" lon="0.91992">
        <ele>59.945</ele>
        <time>2016-09-26T18:38:06Z</time>
      </trkpt>
      <trkpt lat="44.08883" lon="0.9187">
        <ele>59.834</ele>
        <time>2016-09-26T18:38:26Z</time>
      </trkpt>
      <trkpt lat="44.08794" lon="0.91823">
        <ele>58.614</ele>
        <time>2016-09-26T18:38:46Z</time>
      </trkpt>
      <trkpt lat="44.08712" lon="0.91741">
        <ele>60.254</ele>
        <time>2016-09-26T18:39:06Z</time>
      </trkpt>
      <trkpt lat="44.08638" lon="0.91706">
        <ele>58.409</ele>
        <time>2019-03-30T17:24:48Z</time>
      </trkpt>
      <trkpt lat="44.08532" lon="0.91564">
        <ele>59.108</ele>
        <time>2019-03-30T17:25:08Z</time>
      </trkpt>
      <trkpt lat="44.08432" lon="0.91476">
        <ele>60.087</ele>
        <time>2019-03-30T17:25:28Z</time>
      </trkpt>
      <trkpt lat="44.08288" lon="0.91292">
        <ele>57.484</ele>
        <time>2019-03-30T17:25:48Z</time>
      </trkpt>
      <trkpt lat="44.08218" lon="0.91225">
        <ele>55.393</ele>
        <time>2019-03-30T17:26:08Z</time>
      </trkpt>
      <trkpt lat="44.0808" lon="0.91023">
        <ele>58.932</ele>
        <time>2019-03-30T17:26:28Z</time>
      </trkpt>
      <trkpt lat="44.07876" lon="0.91024">
        <ele>60.938</ele>
        <time>2016-09-26T18:42:06Z</time>
      </trkpt>
      <trkpt lat="44.07844" lon="0.91001">
        <ele>59.459</ele>
        <time>2016-09-26T18:42:26Z</time>
      </trkpt>
      <trkpt lat="44.07858" lon="0.90842">
        <ele>58.182</ele>
        <time>2016-09-26T18:42:46Z</time>
      </trkpt>
      <trkpt lat="44.07846" lon="0.90765">
        <ele>60.011</ele>
        <time>2016-09-26T18:43:06Z</time>
      </trkpt>
      <trkpt lat="44.07819" lon="0.90707">
        <ele>60.091</ele>
        <time>2016-09-26T18:43:26Z</time>
      </trkpt>
      <trkpt lat="44.07748" lon="0.90687">
        <ele>59.081</ele>
        <time>2016-09-26T18:43:46Z</time>
      </trkpt>
      <trkpt lat="44.07701" lon="0.90645">
        <ele>60.619</ele>
        <time>2016-09-26T18:44:06Z</time>
      </trkpt>
      <trkpt lat="44.07707" lon="0.9046">
        <ele>62.008</ele>
        <time>2016-09-26T18:44:26Z</time>
      </trkpt>
      <trkpt lat="44.07695" lon="0.90286">
        <ele>64.355</ele>
        <time>2016-09-26T18:44:46Z</time>
      </trkpt>
      <trkpt lat="44.0767" lon="0.90155">
        <ele>61.742</ele>
        <time>2016-09-26T18:45:06Z</time>
      </trkpt>
      <trkpt lat="44.07733" lon="0.90085">
        <ele>61.071</ele>
        <time>2016-09-26T18:45:26Z</time>
      </trkpt>
      <trkpt lat="44.07389" lon="0.89587">
        <ele>59.11</ele>
        <time>2016-09-26T18:45:46Z</time>
      </trkpt>
      <trkpt lat="44.07375" lon="0.89653">
        <ele>58.516</ele>
        <time>2016-09-26T18:46:06Z</time>
      </trkpt>
      <trkpt lat="44.07305" lon="0.89711">
        <ele>66.447</ele>
        <time>2016-09-26T18:46:26Z</time>
      </trkpt>
      <trkpt lat="44.07244" lon="0.89823">
        <ele>66.54</ele>
        <time>2016-09-26T18:46:46Z</time>
      </trkpt>
      <trkpt lat="44.07224" lon="0.89833">
        <ele>69.619</ele>
        <time>2016-09-26T18:47:06Z</time>
      </trkpt>
      <trkpt lat="44.07194" lon="0.89885">
        <ele>77.383</ele>
        <time>2016-09-26T18:47:26Z</time>
      </trkpt>
      <trkpt lat="44.07167" lon="0.89827">
        <ele>88.925</ele>
        <time>2016-09-26T18:47:46Z</time>
      </trkpt>
      <trkpt lat="44.07018" lon="0.89778">
        <ele>109.417</ele>
        <time>2016-09-26T18:48:06Z</time>
      </trkpt>
      <trkpt lat="44.06955" lon="0.89932">
        <ele>118.608</ele>
        <time>2016-09-26T18:48:26Z</time>
      </trkpt>
      <trkpt lat="44.06744" lon="0.89912">
        <ele>127.564</ele>
        <time>2019-03-30T17:33:28Z</time>
      </trkpt>
      <trkpt lat="44.06733" lon="0.89936">
        <ele>128.661</ele>
        <time>2019-03-30T17:33:48Z</time>
      </trkpt>
      <trkpt lat="44.06642" lon="0.89914">
        <ele>138.81</ele>
        <time>2019-03-30T17:34:08Z</time>
      </trkpt>
      <trkpt lat="44.06568" lon="0.89818">
        <ele>145.639</ele>
        <time>2019-03-30T17:34:28Z</time>
      </trkpt>
      <trkpt lat="44.06534" lon="0.89612">
        <ele>148.685</ele>
        <time>2016-09-26T18:50:46Z</time>
      </trkpt>
      <trkpt lat="44.06464" lon="0.89604">
        <ele>146.096</ele>
        <time>2016-09-26T18:51:06Z</time>
      </trkpt>
      <trkpt lat="44.06374" lon="0.89502">
        <ele>141.929</ele>
        <time>2019-03-30T17:35:28Z</time>
      </trkpt>
      <trkpt lat="44.06349" lon="0.89384">
        <ele>132.678</ele>
        <time>2019-03-30T17:35:48Z</time>
      </trkpt>
      <trkpt lat="44.06312" lon="0.89357">
        <ele>130.376</ele>
        <time>2019-03-30T17:36:08Z</time>
      </trkpt>
      <trkpt lat="44.06249" lon="0.89434">
        <ele>122.49</ele>
        <time>2019-03-30T17:36:28Z</time>
      </trkpt>
      <trkpt lat="44.06161" lon="0.89471">
        <ele>105.119</ele>
        <time>2019-03-30T17:36:48Z</time>
      </trkpt>
      <trkpt lat="44.05982" lon="0.89344">
        <ele>92.608</ele>
        <time>2019-03-30T17:37:08Z</time>
      </trkpt>
      <trkpt lat="44.05939" lon="0.89187">
        <ele>95.423</ele>
        <time>2019-03-30T17:37:28Z</time>
      </trkpt>
      <trkpt lat="44.05887" lon="0.8924">
        <ele>102.54</ele>
        <time>2019-03-30T17:37:48Z</time>
      </trkpt>
      <trkpt lat="44.05831" lon="0.89346">
        <ele>105.629</ele>
        <time>2019-03-30T17:38:08Z</time>
      </trkpt>
      <trkpt lat="44.05767" lon="0.89389">
        <ele>113.718</ele>
        <time>2016-09-26T18:54:06Z</time>
      </trkpt>
      <trkpt lat="44.05617" lon="0.89345">
        <ele>125.114</ele>
        <time>2019-03-30T17:38:48Z</time>
      </trkpt>
      <trkpt lat="44.05361" lon="0.88961">
        <ele>139.885</ele>
        <time>2019-03-30T17:39:08Z</time>
      </trkpt>
      <trkpt lat="44.04634" lon="0.8885">
        <ele>158.038</ele>
        <time>2019-03-30T17:39:28Z</time>
      </trkpt>
      <trkpt lat="44.04543" lon="0.88753">
        <ele>155.867</ele>
        <time>2019-03-30T17:39:48Z</time>
      </trkpt>
      <trkpt lat="44.0444" lon="0.88813">
        <ele>155.896</ele>
        <time>2019-03-30T17:40:08Z</time>
      </trkpt>
      <trkpt lat="44.04051" lon="0.88751">
        <ele>162.031</ele>
        <time>2019-03-30T17:40:28Z</time>
      </trkpt>
      <trkpt lat="44.03967" lon="0.88677">
        <ele>160.324</ele>
        <time>2016-09-26T18:56:46Z</time>
      </trkpt>
      <trkpt lat="44.03803" lon="0.88442">
        <ele>160.008</ele>
        <time>2019-03-30T17:41:08Z</time>
      </trkpt>
      <trkpt lat="44.03837" lon="0.88356">
        <ele>162.935</ele>
        <time>2019-03-30T17:41:28Z</time>
      </trkpt>
      <trkpt lat="44.03817" lon="0.8809">
        <ele>159.822</ele>
        <time>2019-03-30T17:41:48Z</time>
      </trkpt>
      <trkpt lat="44.0371" lon="0.87601">
        <ele>163.291</ele>
        <time>2019-03-30T17:42:08Z</time>
      </trkpt>
      <trkpt lat="44.03652" lon="0.87447">
        <ele>164.94</ele>
        <time>2019-03-30T17:42:28Z</time>
      </trkpt>
      <trkpt lat="44.03659" lon="0.87107">
        <ele>168.576</ele>
        <time>2019-03-30T17:42:48Z</time>
      </trkpt>
      <trkpt lat="44.03693" lon="0.86805">
        <ele>163.037</ele>
        <time>2019-03-30T17:43:08Z</time>
      </trkpt>
      <trkpt lat="44.03704" lon="0.86602">
        <ele>165.88</ele>
        <time>2016-09-26T19:00:06Z</time>
      </trkpt>
      <trkpt lat="44.03723" lon="0.86423">
        <ele>149.149</ele>
        <time>2019-03-30T17:43:48Z</time>
      </trkpt>
      <trkpt lat="44.0377" lon="0.86311">
        <ele>131.895</ele>
        <time>2019-03-30T17:44:08Z</time>
      </trkpt>
      <trkpt lat="44.03777" lon="0.8618">
        <ele>118.049</ele>
        <time>2019-03-30T17:44:28Z</time>
      </trkpt>
      <trkpt lat="44.03849" lon="0.8599">
        <ele>98.323</ele>
        <time>2016-09-26T19:01:06Z</time>
      </trkpt>
      <trkpt lat="44.03897" lon="0.85757">
        <ele>81.308</ele>
        <time>2016-09-26T19:01:26Z</time>
      </trkpt>
      <trkpt lat="44.03922" lon="0.85487">
        <ele>69.675</ele>
        <time>2019-03-30T17:45:28Z</time>
      </trkpt>
      <trkpt lat="44.0398" lon="0.85228">
        <ele>67.252</ele>
        <time>2019-03-30T17:45:48Z</time>
      </trkpt>
      <trkpt lat="44.04129" lon="0.85237">
        <ele>66.091</ele>
        <time>2016-09-26T19:02:46Z</time>
      </trkpt>
      <trkpt lat="44.04101" lon="0.85">
        <ele>67.08</ele>
        <time>2019-03-30T17:46:28Z</time>
      </trkpt>
      <trkpt lat="44.04054" lon="0.84904">
        <ele>66.056</ele>
        <time>2019-03-30T17:46:48Z</time>
      </trkpt>
      <trkpt lat="44.04037" lon="0.84773">
        <ele>69.367</ele>
        <time>2019-03-30T17:47:08Z</time>
      </trkpt>
      <trkpt lat="44.04011" lon="0.84638">
        <ele>71.48</ele>
        <time>2019-03-30T17:47:28Z</time>
      </trkpt>
      <trkpt lat="44.03929" lon="0.84587">
        <ele>73.879</ele>
        <time>2016-09-26T19:04:06Z</time>
      </trkpt>
      <trkpt lat="44.03872" lon="0.84443">
        <ele>79.555</ele>
        <time>2016-09-26T19:04:26Z</time>
      </trkpt>
      <trkpt lat="44.0384" lon="0.84281">
        <ele>80.907</ele>
        <time>2019-03-30T17:48:28Z</time>
      </trkpt>
      <trkpt lat="44.0375" lon="0.8413">
        <ele>79.017</ele>
        <time>2016-09-26T19:05:26Z</time>
      </trkpt>
      <trkpt lat="44.03674" lon="0.84087">
        <ele>76.108</ele>
        <time>2016-09-26T19:05:46Z</time>
      </trkpt>
      <trkpt lat="44.03596" lon="0.83971">
        <ele>75.541</ele>
        <time>2016-09-26T19:06:06Z</time>
      </trkpt>
      <trkpt lat="44.03546" lon="0.8386">
        <ele>74.768</ele>
        <time>2016-09-26T19:06:26Z</time>
      </trkpt>
      <trkpt lat="44.03454" lon="0.83721">
        <ele>76.487</ele>
        <time>2019-03-30T17:50:08Z</time>
      </trkpt>
      <trkpt lat="44.03229" lon="0.83537">
        <ele>80.016</ele>
        <time>2019-03-30T17:50:28Z</time>
      </trkpt>
      <trkpt lat="44.0319" lon="0.8343">
        <ele>84.512</ele>
        <time>2016-09-26T19:07:26Z</time>
      </trkpt>
      <trkpt lat="44.03109" lon="0.83256">
        <ele>102.733</ele>
        <time>2019-03-30T17:51:08Z</time>
      </trkpt>
      <trkpt lat="44.03101" lon="0.83088">
        <ele>114.116</ele>
        <time>2019-03-30T17:51:28Z</time>
      </trkpt>
      <trkpt lat="44.03058" lon="0.82786">
        <ele>125.215</ele>
        <time>2019-03-30T17:51:48Z</time>
      </trkpt>
      <trkpt lat="44.03028" lon="0.82649">
        <ele>128.357</ele>
        <time>2016-09-26T19:09:26Z</time>
      </trkpt>
      <trkpt lat="44.03006" lon="0.82546">
        <ele>129.4</ele>
        <time>2016-09-26T19:09:46Z</time>
      </trkpt>
      <trkpt lat="44.02898" lon="0.82349">
        <ele>133.52</ele>
        <time>2016-09-26T19:10:06Z</time>
      </trkpt>
      <trkpt lat="44.02855" lon="0.82216">
        <ele>136.808</ele>
        <time>2016-09-26T19:10:26Z</time>
      </trkpt>
      <trkpt lat="44.02843" lon="0.82092">
        <ele>138.371</ele>
        <time>2016-09-26T19:10:46Z</time>
      </trkpt>
      <trkpt lat="44.02801" lon="0.82064">
        <ele>137.158</ele>
        <time>2016-09-26T19:11:06Z</time>
      </trkpt>
      <trkpt lat="44.02775" lon="0.81991">
        <ele>141.797</ele>
        <time>2016-09-26T19:11:26Z</time>
      </trkpt>
      <trkpt lat="44.0276" lon="0.81868">
        <ele>143.746</ele>
        <time>2016-09-26T19:11:46Z</time>
      </trkpt>
      <trkpt lat="44.02703" lon="0.81722">
        <ele>143.762</ele>
        <time>2016-09-26T19:12:06Z</time>
      </trkpt>
      <trkpt lat="44.02686" lon="0.81656">
        <ele>144.473</ele>
        <time>2016-09-26T19:12:26Z</time>
      </trkpt>
      <trkpt lat="44.02659" lon="0.81634">
        <ele>140.756</ele>
        <time>2016-09-26T19:12:46Z</time>
      </trkpt>
      <trkpt lat="44.02607" lon="0.81547">
        <ele>122.265</ele>
        <time>2016-09-26T19:13:06Z</time>
      </trkpt>
      <trkpt lat="44.02564" lon="0.81495">
        <ele>115.599</ele>
        <time>2016-09-26T19:13:26Z</time>
      </trkpt>
      <trkpt lat="44.02513" lon="0.81394">
        <ele>101.807</ele>
        <time>2016-09-26T19:13:46Z</time>
      </trkpt>
      <trkpt lat="44.02459" lon="0.81247">
        <ele>96.627</ele>
        <time>2019-03-30T17:56:48Z</time>
      </trkpt>
      <trkpt lat="44.0243" lon="0.80902">
        <ele>110.808</ele>
        <time>2019-03-30T17:57:08Z</time>
      </trkpt>
      <trkpt lat="44.02376" lon="0.80617">
        <ele>122.665</ele>
        <time>2019-03-30T17:57:28Z</time>
      </trkpt>
      <trkpt lat="44.02311" lon="0.80411">
        <ele>129.232</ele>
        <time>2019-03-30T17:57:48Z</time>
      </trkpt>
      <trkpt lat="44.02205" lon="0.8014">
        <ele>136.961</ele>
        <time>2019-03-30T17:58:08Z</time>
      </trkpt>
      <trkpt lat="44.02169" lon="0.80024">
        <ele>145.82</ele>
        <time>2019-03-30T17:58:28Z</time>
      </trkpt>
      <trkpt lat="44.02106" lon="0.79881">
        <ele>153.386</ele>
        <time>2019-03-30T17:58:48Z</time>
      </trkpt>
      <trkpt lat="44.02063" lon="0.79683">
        <ele>157.927</ele>
        <time>2019-03-30T17:59:08Z</time>
      </trkpt>
      <trkpt lat="44.02023" lon="0.79591">
        <ele>159.06</ele>
        <time>2019-03-30T17:59:28Z</time>
      </trkpt>
      <trkpt lat="44.01958" lon="0.79526">
        <ele>163.629</ele>
        <time>2019-03-30T17:59:48Z</time>
      </trkpt>
      <trkpt lat="44.01823" lon="0.79434">
        <ele>180.196</ele>
        <time>2019-03-30T18:00:08Z</time>
      </trkpt>
      <trkpt lat="44.01781" lon="0.79366">
        <ele>194.531</ele>
        <time>2016-09-26T19:18:06Z</time>
      </trkpt>
      <trkpt lat="44.01732" lon="0.79344">
        <ele>199.424</ele>
        <time>2019-03-30T18:00:48Z</time>
      </trkpt>
      <trkpt lat="44.0172" lon="0.7926">
        <ele>199.508</ele>
        <time>2019-03-30T18:01:08Z</time>
      </trkpt>
      <trkpt lat="44.01655" lon="0.79048">
        <ele>194.675</ele>
        <time>2019-03-30T18:01:28Z</time>
      </trkpt>
      <trkpt lat="44.01634" lon="0.78881">
        <ele>188.122</ele>
        <time>2019-03-30T18:01:48Z</time>
      </trkpt>
      <trkpt lat="44.01731" lon="0.78417">
        <ele>198.331</ele>
        <time>2019-03-30T18:02:08Z</time>
      </trkpt>
      <trkpt lat="44.01708" lon="0.78207">
        <ele>209.11</ele>
        <time>2019-03-30T18:02:28Z</time>
      </trkpt>
      <trkpt lat="44.0162" lon="0.78142">
        <ele>207.656</ele>
        <time>2019-03-30T18:02:48Z</time>
      </trkpt>
      <trkpt lat="44.01556" lon="0.78139">
        <ele>207.037</ele>
        <time>2016-09-26T19:21:06Z</time>
      </trkpt>
      <trkpt lat="44.01516" lon="0.78107">
        <ele>202.93</ele>
        <time>2016-09-26T19:21:26Z</time>
      </trkpt>
      <trkpt lat="44.01374" lon="0.78004">
        <ele>179.439</ele>
        <time>2016-09-26T19:21:46Z</time>
      </trkpt>
      <trkpt lat="44.01403" lon="0.77935">
        <ele>174.499</ele>
        <time>2016-09-26T19:22:06Z</time>
      </trkpt>
      <trkpt lat="44.01359" lon="0.77916">
        <ele>168.707</ele>
        <time>2016-09-26T19:22:26Z</time>
      </trkpt>
      <trkpt lat="44.0134" lon="0.77847">
        <ele>164.627</ele>
        <time>2016-09-26T19:22:46Z</time>
      </trkpt>
      <trkpt lat="44.01312" lon="0.778">
        <ele>161.708</ele>
        <time>2016-09-26T19:23:06Z</time>
      </trkpt>
      <trkpt lat="44.01053" lon="0.7775">
        <ele>156.855</ele>
        <time>2019-03-30T18:05:28Z</time>
      </trkpt>
      <trkpt lat="44.01005" lon="0.77555">
        <ele>160.692</ele>
        <time>2016-09-26T19:23:46Z</time>
      </trkpt>
      <trkpt lat="44.00915" lon="0.77469">
        <ele>155.161</ele>
        <time>2019-03-30T18:06:08Z</time>
      </trkpt>
      <trkpt lat="44.00817" lon="0.77402">
        <ele>160.89</ele>
        <time>2019-03-30T18:06:28Z</time>
      </trkpt>
      <trkpt lat="44.00632" lon="0.7705">
        <ele>155.626</ele>
        <time>2019-03-30T18:06:48Z</time>
      </trkpt>
      <trkpt lat="44.00487" lon="0.76855">
        <ele>159.787</ele>
        <time>2019-03-30T18:07:08Z</time>
      </trkpt>
      <trkpt lat="44.00433" lon="0.76842">
        <ele>163.83</ele>
        <time>2019-03-30T18:07:28Z</time>
      </trkpt>
      <trkpt lat="44.00364" lon="0.76713">
        <ele>175.199</ele>
        <time>2019-03-30T18:07:48Z</time>
      </trkpt>
      <trkpt lat="44.00355" lon="0.76633">
        <ele>182.521</ele>
        <time>2016-09-26T19:26:06Z</time>
      </trkpt>
      <trkpt lat="44.00157" lon="0.76471">
        <ele>211.041</ele>
        <time>2019-03-30T18:08:28Z</time>
      </trkpt>
      <trkpt lat="44.00114" lon="0.76186">
        <ele>201.605</ele>
        <time>2019-03-30T18:08:48Z</time>
      </trkpt>
      <trkpt lat="44.00064" lon="0.76048">
        <ele>193.608</ele>
        <time>2019-03-30T18:09:08Z</time>
      </trkpt>
      <trkpt lat="43.99946" lon="0.75834">
        <ele>195.948</ele>
        <time>2016-09-26T19:27:26Z</time>
      </trkpt>
      <trkpt lat="43.99903" lon="0.75736">
        <ele>200.075</ele>
        <time>2016-09-26T19:27:46Z</time>
      </trkpt>
      <trkpt lat="43.99862" lon="0.75731">
        <ele>200.094</ele>
        <time>2019-03-30T18:10:08Z</time>
      </trkpt>
      <trkpt lat="43.99797" lon="0.75604">
        <ele>200.013</ele>
        <time>2019-03-30T18:10:28Z</time>
      </trkpt>
      <trkpt lat="43.99732" lon="0.75565">
        <ele>200.039</ele>
        <time>2019-03-30T18:10:48Z</time>
      </trkpt>
      <trkpt lat="43.99449" lon="0.75553">
        <ele>197.59</ele>
        <time>2016-09-26T19:29:06Z</time>
      </trkpt>
      <trkpt lat="43.993" lon="0.75407">
        <ele>188.713</ele>
        <time>2016-09-26T19:29:26Z</time>
      </trkpt>
      <trkpt lat="43.99207" lon="0.75365">
        <ele>185.292</ele>
        <time>2016-09-26T19:29:46Z</time>
      </trkpt>
      <trkpt lat="43.99097" lon="0.75255">
        <ele>175.175</ele>
        <time>2016-09-26T19:30:06Z</time>
      </trkpt>
      <trkpt lat="43.98952" lon="0.75096">
        <ele>168.828</ele>
        <time>2016-09-26T19:30:26Z</time>
      </trkpt>
      <trkpt lat="43.98921" lon="0.74871">
        <ele>163.42</ele>
        <time>2016-09-26T19:30:46Z</time>
      </trkpt>
      <trkpt lat="43.98879" lon="0.74679">
        <ele>154.208</ele>
        <time>2019-03-30T18:13:08Z</time>
      </trkpt>
      <trkpt lat="43.9885" lon="0.7468">
        <ele>156.393</ele>
        <time>2016-09-26T19:31:26Z</time>
      </trkpt>
      <trkpt lat="43.98761" lon="0.74639">
        <ele>160.01</ele>
        <time>2016-09-26T19:31:46Z</time>
      </trkpt>
      <trkpt lat="43.98665" lon="0.74468">
        <ele>180.619</ele>
        <time>2016-09-26T19:32:06Z</time>
      </trkpt>
      <trkpt lat="43.98651" lon="0.74382">
        <ele>186.828</ele>
        <time>2016-09-26T19:32:26Z</time>
      </trkpt>
      <trkpt lat="43.98651" lon="0.74382">
        <ele>186.874</ele>
        <time>2016-09-26T19:32:46Z</time>
      </trkpt>
      <trkpt lat="43.98509" lon="0.74189">
        <ele>196.875</ele>
        <time>2016-09-26T19:33:06Z</time>
      </trkpt>
      <trkpt lat="43.98464" lon="0.74034">
        <ele>194.738</ele>
        <time>2016-09-26T19:33:26Z</time>
      </trkpt>
      <trkpt lat="43.98398" lon="0.73955">
        <ele>186.687</ele>
        <time>2016-09-26T19:33:46Z</time>
      </trkpt>
      <trkpt lat="43.98182" lon="0.73852">
        <ele>149.188</ele>
        <time>2016-09-26T19:34:06Z</time>
      </trkpt>
      <trkpt lat="43.98186" lon="0.73624">
        <ele>145.224</ele>
        <time>2016-09-26T19:34:26Z</time>
      </trkpt>
      <trkpt lat="43.9827" lon="0.73348">
        <ele>136.626</ele>
        <time>2016-09-26T19:34:46Z</time>
      </trkpt>
      <trkpt lat="43.98304" lon="0.733">
        <ele>138.708</ele>
        <time>2016-09-26T19:35:06Z</time>
      </trkpt>
      <trkpt lat="43.98305" lon="0.73163">
        <ele>136.054</ele>
        <time>2016-09-26T19:35:26Z</time>
      </trkpt>
      <trkpt lat="43.98322" lon="0.7306">
        <ele>134.321</ele>
        <time>2016-09-26T19:35:46Z</time>
      </trkpt>
      <trkpt lat="43.98239" lon="0.72513">
        <ele>100.15</ele>
        <time>2016-09-26T19:36:06Z</time>
      </trkpt>
      <trkpt lat="43.98197" lon="0.72395">
        <ele>96.199</ele>
        <time>2016-09-26T19:36:26Z</time>
      </trkpt>
      <trkpt lat="43.98157" lon="0.72352">
        <ele>95.865</ele>
        <time>2016-09-26T19:36:46Z</time>
      </trkpt>
      <trkpt lat="43.9806" lon="0.72146">
        <ele>97.076</ele>
        <time>2016-09-26T19:37:06Z</time>
      </trkpt>
      <trkpt lat="43.98046" lon="0.71824">
        <ele>101.919</ele>
        <time>2016-09-26T19:37:26Z</time>
      </trkpt>
      <trkpt lat="43.98015" lon="0.71828">
        <ele>103.028</ele>
        <time>2016-09-26T19:37:46Z</time>
      </trkpt>
      <trkpt lat="43.98009" lon="0.71717">
        <ele>104.097</ele>
        <time>2016-09-26T19:38:06Z</time>
      </trkpt>
      <trkpt lat="43.97956" lon="0.71586">
        <ele>105.923</ele>
        <time>2016-09-26T19:38:26Z</time>
      </trkpt>
      <trkpt lat="43.97941" lon="0.71521">
        <ele>106.225</ele>
        <time>2016-09-26T19:38:46Z</time>
      </trkpt>
      <trkpt lat="43.97956" lon="0.71504">
        <ele>106.808</ele>
        <time>2016-09-26T19:39:06Z</time>
      </trkpt>
      <trkpt lat="43.97842" lon="0.71348">
        <ele>106.315</ele>
        <time>2016-09-26T19:39:26Z</time>
      </trkpt>
      <trkpt lat="43.97774" lon="0.71324">
        <ele>103.242</ele>
        <time>2016-09-26T19:39:46Z</time>
      </trkpt>
      <trkpt lat="43.97774" lon="0.71324">
        <ele>103.211</ele>
        <time>2016-09-26T19:40:06Z</time>
      </trkpt>
      <trkpt lat="43.97686" lon="0.71262">
        <ele>108.63</ele>
        <time>2016-09-26T19:40:26Z</time>
      </trkpt>
      <trkpt lat="43.97601" lon="0.71182">
        <ele>110.256</ele>
        <time>2016-09-26T19:40:46Z</time>
      </trkpt>
      <trkpt lat="43.97597" lon="0.71148">
        <ele>110.887</ele>
        <time>2016-09-26T19:41:06Z</time>
      </trkpt>
      <trkpt lat="43.97384" lon="0.70966">
        <ele>116.44</ele>
        <time>2016-09-26T19:41:26Z</time>
      </trkpt>
      <trkpt lat="43.97024" lon="0.70605">
        <ele>127.239</ele>
        <time>2016-09-26T19:41:46Z</time>
      </trkpt>
      <trkpt lat="43.9699" lon="0.7061">
        <ele>126.624</ele>
        <time>2016-09-26T19:42:06Z</time>
      </trkpt>
      <trkpt lat="43.96939" lon="0.70575">
        <ele>124.904</ele>
        <time>2016-09-26T19:42:26Z</time>
      </trkpt>
      <trkpt lat="43.96699" lon="0.70333">
        <ele>116.014</ele>
        <time>2016-09-26T19:42:46Z</time>
      </trkpt>
      <trkpt lat="43.96475" lon="0.70041">
        <ele>122.208</ele>
        <time>2016-09-26T19:43:06Z</time>
      </trkpt>
      <trkpt lat="43.96253" lon="0.69968">
        <ele>112.478</ele>
        <time>2016-09-26T19:43:26Z</time>
      </trkpt>
      <trkpt lat="43.96222" lon="0.69968">
        <ele>110.255</ele>
        <time>2016-09-26T19:43:46Z</time>
      </trkpt>
      <trkpt lat="43.96165" lon="0.69798">
        <ele>110.954</ele>
        <time>2016-09-26T19:44:06Z</time>
      </trkpt>
      <trkpt lat="43.96168" lon="0.69638">
        <ele>114.193</ele>
        <time>2016-09-26T19:44:26Z</time>
      </trkpt>
      <trkpt lat="43.9616" lon="0.69569">
        <ele>114.959</ele>
        <time>2016-09-26T19:44:46Z</time>
      </trkpt>
      <trkpt lat="43.9619" lon="0.69384">
        <ele>123.24</ele>
        <time>2016-09-26T19:45:06Z</time>
      </trkpt>
      <trkpt lat="43.96224" lon="0.69157">
        <ele>127.853</ele>
        <time>2016-09-26T19:45:26Z</time>
      </trkpt>
      <trkpt lat="43.96204" lon="0.69039">
        <ele>124.792</ele>
        <time>2016-09-26T19:45:46Z</time>
      </trkpt>
      <trkpt lat="43.96128" lon="0.68824">
        <ele>119.646</ele>
        <time>2016-09-26T19:46:06Z</time>
      </trkpt>
      <trkpt lat="43.96075" lon="0.68753">
        <ele>119.688</ele>
        <time>2016-09-26T19:46:26Z</time>
      </trkpt>
      <trkpt lat="43.9602" lon="0.68758">
        <ele>117.516</ele>
        <time>2016-09-26T19:46:46Z</time>
      </trkpt>
      <trkpt lat="43.95961" lon="0.68642">
        <ele>119.908</ele>
        <time>2016-09-26T19:47:06Z</time>
      </trkpt>
      <trkpt lat="43.95899" lon="0.6855">
        <ele>120.07</ele>
        <time>2016-09-26T19:47:26Z</time>
      </trkpt>
      <trkpt lat="43.95855" lon="0.68419">
        <ele>122.997</ele>
        <time>2016-09-26T19:47:46Z</time>
      </trkpt>
      <trkpt lat="43.95844" lon="0.68326">
        <ele>124.636</ele>
        <time>2016-09-26T19:48:06Z</time>
      </trkpt>
      <trkpt lat="43.95807" lon="0.68243">
        <ele>124.385</ele>
        <time>2016-09-26T19:48:26Z</time>
      </trkpt>
      <trkpt lat="43.95824" lon="0.68204">
        <ele>127.051</ele>
        <time>2016-09-26T19:48:46Z</time>
      </trkpt>
      <trkpt lat="43.9575" lon="0.68041">
        <ele>127.522</ele>
        <time>2016-09-26T19:49:06Z</time>
      </trkpt>
      <trkpt lat="43.95685" lon="0.68007">
        <ele>127.215</ele>
        <time>2016-09-26T19:49:26Z</time>
      </trkpt>
      <trkpt lat="43.95683" lon="0.67889">
        <ele>128.434</ele>
        <time>2016-09-26T19:49:46Z</time>
      </trkpt>
      <trkpt lat="43.95601" lon="0.67766">
        <ele>130.081</ele>
        <time>2016-09-26T19:50:06Z</time>
      </trkpt>
      <trkpt lat="43.95456" lon="0.67711">
        <ele>133.661</ele>
        <time>2016-09-26T19:50:26Z</time>
      </trkpt>
      <trkpt lat="43.95402" lon="0.67629">
        <ele>136.617</ele>
        <time>2016-09-26T19:50:46Z</time>
      </trkpt>
      <trkpt lat="43.95348" lon="0.67472">
        <ele>140.408</ele>
        <time>2016-09-26T19:51:06Z</time>
      </trkpt>
      <trkpt lat="43.95308" lon="0.67262">
        <ele>141.444</ele>
        <time>2016-09-26T19:51:26Z</time>
      </trkpt>
      <trkpt lat="43.95221" lon="0.67093">
        <ele>150.531</ele>
        <time>2016-09-26T19:51:46Z</time>
      </trkpt>
      <trkpt lat="43.95292" lon="0.6694">
        <ele>158.53</ele>
        <time>2016-09-26T19:52:06Z</time>
      </trkpt>
      <trkpt lat="43.95325" lon="0.66936">
        <ele>158.049</ele>
        <time>2016-09-26T19:52:26Z</time>
      </trkpt>
      <trkpt lat="43.95373" lon="0.66889">
        <ele>156.865</ele>
        <time>2016-09-26T19:52:46Z</time>
      </trkpt>
      <trkpt lat="43.95405" lon="0.66775">
        <ele>158.886</ele>
        <time>2016-09-26T19:53:06Z</time>
      </trkpt>
      <trkpt lat="43.95422" lon="0.66623">
        <ele>160.719</ele>
        <time>2016-09-26T19:53:26Z</time>
      </trkpt>
      <trkpt lat="43.95453" lon="0.66528">
        <ele>159.028</ele>
        <time>2016-09-26T19:53:46Z</time>
      </trkpt>
      <trkpt lat="43.95467" lon="0.66402">
        <ele>163.128</ele>
        <time>2016-09-26T19:54:06Z</time>
      </trkpt>
      <trkpt lat="43.95502" lon="0.66187">
        <ele>169.289</ele>
        <time>2016-09-26T19:54:26Z</time>
      </trkpt>
      <trkpt lat="43.95496" lon="0.6611">
        <ele>171.217</ele>
        <time>2016-09-26T19:54:46Z</time>
      </trkpt>
      <trkpt lat="43.95471" lon="0.66095">
        <ele>172.708</ele>
        <time>2016-09-26T19:55:06Z</time>
      </trkpt>
      <trkpt lat="43.95444" lon="0.65958">
        <ele>175.018</ele>
        <time>2016-09-26T19:55:26Z</time>
      </trkpt>
      <trkpt lat="43.94912" lon="0.65533">
        <ele>210.065</ele>
        <time>2016-09-26T19:55:46Z</time>
      </trkpt>
      <trkpt lat="43.94878" lon="0.65535">
        <ele>210.074</ele>
        <time>2016-09-26T19:56:06Z</time>
      </trkpt>
      <trkpt lat="43.94833" lon="0.65569">
        <ele>210.073</ele>
        <time>2016-09-26T19:56:26Z</time>
      </trkpt>
      <trkpt lat="43.94614" lon="0.65458">
        <ele>210.949</ele>
        <time>2016-09-26T19:56:46Z</time>
      </trkpt>
      <trkpt lat="43.94529" lon="0.65419">
        <ele>211.18</ele>
        <time>2016-09-26T19:57:06Z</time>
      </trkpt>
      <trkpt lat="43.94353" lon="0.65277">
        <ele>202.123</ele>
        <time>2016-09-26T19:57:26Z</time>
      </trkpt>
      <trkpt lat="43.94222" lon="0.65088">
        <ele>182.942</ele>
        <time>2016-09-26T19:57:46Z</time>
      </trkpt>
      <trkpt lat="43.94118" lon="0.65061">
        <ele>173.584</ele>
        <time>2016-09-26T19:58:06Z</time>
      </trkpt>
      <trkpt lat="43.94064" lon="0.65022">
        <ele>167.907</ele>
        <time>2016-09-26T19:58:26Z</time>
      </trkpt>
      <trkpt lat="43.94127" lon="0.64958">
        <ele>173.217</ele>
        <time>2016-09-26T19:58:46Z</time>
      </trkpt>
      <trkpt lat="43.94175" lon="0.64928">
        <ele>176.708</ele>
        <time>2016-09-26T19:59:06Z</time>
      </trkpt>
      <trkpt lat="43.94229" lon="0.64887">
        <ele>178.734</ele>
        <time>2016-09-26T19:59:26Z</time>
      </trkpt>
      <trkpt lat="43.94401" lon="0.64837">
        <ele>194.451</ele>
        <time>2016-09-26T19:59:46Z</time>
      </trkpt>
      <trkpt lat="43.94435" lon="0.64728">
        <ele>196.78</ele>
        <time>2016-09-26T20:00:06Z</time>
      </trkpt>
      <trkpt lat="43.94467" lon="0.64571">
        <ele>197.639</ele>
        <time>2016-09-26T20:00:26Z</time>
      </trkpt>
      <trkpt lat="43.94416" lon="0.64475">
        <ele>190.975</ele>
        <time>2016-09-26T20:00:46Z</time>
      </trkpt>
      <trkpt lat="43.94401" lon="0.64408">
        <ele>186.436</ele>
        <time>2016-09-26T20:01:06Z</time>
      </trkpt>
      <trkpt lat="43.94402" lon="0.64365">
        <ele>184.749</ele>
        <time>2016-09-26T20:01:26Z</time>
      </trkpt>
      <trkpt lat="43.94334" lon="0.64209">
        <ele>174.678</ele>
        <time>2016-09-26T20:01:46Z</time>
      </trkpt>
      <trkpt lat="43.94256" lon="0.64119">
        <ele>162.752</ele>
        <time>2016-09-26T20:02:06Z</time>
      </trkpt>
      <trkpt lat="43.94219" lon="0.63951">
        <ele>160.653</ele>
        <time>2016-09-26T20:02:26Z</time>
      </trkpt>
      <trkpt lat="43.94226" lon="0.63857">
        <ele>164.708</ele>
        <time>2016-09-26T20:02:46Z</time>
      </trkpt>
      <trkpt lat="43.94185" lon="0.63717">
        <ele>154.708</ele>
        <time>2016-09-26T20:03:06Z</time>
      </trkpt>
      <trkpt lat="43.94198" lon="0.63569">
        <ele>155.171</ele>
        <time>2016-09-26T20:03:26Z</time>
      </trkpt>
      <trkpt lat="43.94186" lon="0.63531">
        <ele>155.078</ele>
        <time>2016-09-26T20:03:46Z</time>
      </trkpt>
      <trkpt lat="43.94103" lon="0.63505">
        <ele>139.377</ele>
        <time>2016-09-26T20:04:06Z</time>
      </trkpt>
      <trkpt lat="43.93979" lon="0.63355">
        <ele>123.046</ele>
        <time>2016-09-26T20:04:26Z</time>
      </trkpt>
      <trkpt lat="43.93913" lon="0.63232">
        <ele>122.552</ele>
        <time>2016-09-26T20:04:46Z</time>
      </trkpt>
      <trkpt lat="43.93838" lon="0.63164">
        <ele>128.043</ele>
        <time>2016-09-26T20:05:06Z</time>
      </trkpt>
      <trkpt lat="43.93808" lon="0.63119">
        <ele>125.976</ele>
        <time>2016-09-26T20:05:26Z</time>
      </trkpt>
      <trkpt lat="43.93698" lon="0.63056">
        <ele>126.775</ele>
        <time>2016-09-26T20:05:46Z</time>
      </trkpt>
      <trkpt lat="43.93678" lon="0.6281">
        <ele>143.826</ele>
        <time>2016-09-26T20:06:06Z</time>
      </trkpt>
      <trkpt lat="43.93667" lon="0.62743">
        <ele>150.247</ele>
        <time>2016-09-26T20:06:26Z</time>
      </trkpt>
      <trkpt lat="43.93673" lon="0.62629">
        <ele>154.311</ele>
        <time>2016-09-26T20:06:46Z</time>
      </trkpt>
      <trkpt lat="43.93647" lon="0.62526">
        <ele>155.108</ele>
        <time>2016-09-26T20:07:06Z</time>
      </trkpt>
      <trkpt lat="43.93604" lon="0.62494">
        <ele>158.978</ele>
        <time>2016-09-26T20:07:26Z</time>
      </trkpt>
      <trkpt lat="43.93604" lon="0.62494">
        <ele>158.945</ele>
        <time>2016-09-26T20:07:46Z</time>
      </trkpt>
      <trkpt lat="43.93559" lon="0.62362">
        <ele>158.164</ele>
        <time>2016-09-26T20:08:06Z</time>
      </trkpt>
      <trkpt lat="43.9352" lon="0.62375">
        <ele>166.673</ele>
        <time>2016-09-26T20:08:26Z</time>
      </trkpt>
      <trkpt lat="43.93525" lon="0.62281">
        <ele>165.539</ele>
        <time>2016-09-26T20:08:46Z</time>
      </trkpt>
      <trkpt lat="43.93451" lon="0.62313">
        <ele>176.98</ele>
        <time>2016-09-26T20:09:06Z</time>
      </trkpt>
      <trkpt lat="43.93407" lon="0.62321">
        <ele>179.523</ele>
        <time>2021-01-03T11:39:20Z</time>
      </trkpt>
      <trkpt lat="43.9341" lon="0.62229">
        <ele>179.112</ele>
        <time>2021-01-03T11:39:40Z</time>
      </trkpt>
      <trkpt lat="43.93422" lon="0.62151">
        <ele>178.835</ele>
        <time>2021-01-03T11:40:00Z</time>
      </trkpt>
      <trkpt lat="43.93551" lon="0.61692">
        <ele>165.986</ele>
        <time>2021-01-03T11:40:20Z</time>
      </trkpt>
      <trkpt lat="43.93596" lon="0.61658">
        <ele>160.714</ele>
        <time>2021-01-03T11:40:40Z</time>
      </trkpt>
      <trkpt lat="43.93615" lon="0.61588">
        <ele>157.408</ele>
        <time>2021-01-03T11:41:00Z</time>
      </trkpt>
      <trkpt lat="43.93632" lon="0.61577">
        <ele>153.539</ele>
        <time>2021-01-03T11:41:20Z</time>
      </trkpt>
      <trkpt lat="43.9362" lon="0.61531">
        <ele>148.616</ele>
        <time>2021-01-03T11:41:40Z</time>
      </trkpt>
      <trkpt lat="43.93651" lon="0.61545">
        <ele>146.465</ele>
        <time>2021-01-03T11:42:00Z</time>
      </trkpt>
      <trkpt lat="43.93639" lon="0.61514">
        <ele>144.154</ele>
        <time>2021-01-03T11:42:20Z</time>
      </trkpt>
      <trkpt lat="43.93615" lon="0.6149">
        <ele>142.44</ele>
        <time>2021-01-03T11:42:40Z</time>
      </trkpt>
      <trkpt lat="43.93628" lon="0.61482">
        <ele>140.611</ele>
        <time>2021-01-03T11:43:00Z</time>
      </trkpt>
      <trkpt lat="43.9367" lon="0.61483">
        <ele>138.384</ele>
        <time>2021-01-03T11:43:20Z</time>
      </trkpt>
      <trkpt lat="43.93689" lon="0.61467">
        <ele>133.933</ele>
        <time>2021-01-03T11:43:40Z</time>
      </trkpt>
      <trkpt lat="43.93663" lon="0.61424">
        <ele>124.713</ele>
        <time>2021-01-03T11:44:00Z</time>
      </trkpt>
      <trkpt lat="43.93615" lon="0.61365">
        <ele>116.443</ele>
        <time>2021-01-03T11:44:20Z</time>
      </trkpt>
      <trkpt lat="43.93599" lon="0.61309">
        <ele>105.107</ele>
        <time>2021-01-03T11:44:40Z</time>
      </trkpt>
      <trkpt lat="43.93543" lon="0.61249">
        <ele>95.208</ele>
        <time>2021-01-03T11:45:00Z</time>
      </trkpt>
      <trkpt lat="43.93465" lon="0.61264">
        <ele>95.667</ele>
        <time>2021-01-03T11:45:20Z</time>
      </trkpt>
      <trkpt lat="43.93386" lon="0.61296">
        <ele>93.234</ele>
        <time>2021-01-03T11:45:40Z</time>
      </trkpt>
      <trkpt lat="43.93369" lon="0.61293">
        <ele>90.393</ele>
        <time>2021-01-03T11:46:00Z</time>
      </trkpt>
      <trkpt lat="43.93403" lon="0.61168">
        <ele>77.032</ele>
        <time>2021-01-03T11:46:20Z</time>
      </trkpt>
      <trkpt lat="43.93437" lon="0.60904">
        <ele>76.698</ele>
        <time>2021-01-03T11:46:40Z</time>
      </trkpt>
      <trkpt lat="43.93451" lon="0.60945">
        <ele>76.089</ele>
        <time>2021-01-03T11:47:00Z</time>
      </trkpt>
      <trkpt lat="43.93459" lon="0.60991">
        <ele>76.012</ele>
        <time>2021-01-03T11:47:20Z</time>
      </trkpt>
      <trkpt lat="43.93494" lon="0.60984">
        <ele>76.091</ele>
        <time>2021-01-03T11:47:40Z</time>
      </trkpt>
      <trkpt lat="43.93543" lon="0.60991">
        <ele>76.422</ele>
        <time>2016-09-26T20:16:26Z</time>
      </trkpt>
      <trkpt lat="43.93594" lon="0.60933">
        <ele>76.062</ele>
        <time>2016-09-26T20:16:46Z</time>
      </trkpt>
      <trkpt lat="43.93605" lon="0.60877">
        <ele>76.008</ele>
        <time>2016-09-26T20:17:06Z</time>
      </trkpt>
      <trkpt lat="43.93648" lon="0.60785">
        <ele>77.008</ele>
        <time>2016-09-26T20:17:26Z</time>
      </trkpt>
      <trkpt lat="43.93744" lon="0.60674">
        <ele>77.048</ele>
        <time>2016-09-26T20:17:46Z</time>
      </trkpt>
      <trkpt lat="43.93747" lon="0.60547">
        <ele>77.065</ele>
        <time>2016-09-26T20:18:06Z</time>
      </trkpt>
      <trkpt lat="43.93769" lon="0.60427">
        <ele>77.074</ele>
        <time>2016-09-26T20:18:26Z</time>
      </trkpt>
      <trkpt lat="43.93767" lon="0.60384">
        <ele>77.273</ele>
        <time>2016-09-26T20:18:46Z</time>
      </trkpt>
      <trkpt lat="43.93803" lon="0.60302">
        <ele>81.339</ele>
        <time>2016-09-26T20:19:06Z</time>
      </trkpt>
      <trkpt lat="43.93798" lon="0.60251">
        <ele>85.02</ele>
        <time>2016-09-26T20:19:26Z</time>
      </trkpt>
      <trkpt lat="43.93707" lon="0.5989">
        <ele>93.463</ele>
        <time>2016-09-26T20:19:46Z</time>
      </trkpt>
      <trkpt lat="43.93699" lon="0.59684">
        <ele>98.512</ele>
        <time>2016-09-26T20:20:06Z</time>
      </trkpt>
      <trkpt lat="43.93713" lon="0.59592">
        <ele>101.786</ele>
        <time>2016-09-26T20:20:26Z</time>
      </trkpt>
      <trkpt lat="43.93692" lon="0.59442">
        <ele>107.36</ele>
        <time>2016-09-26T20:20:46Z</time>
      </trkpt>
      <trkpt lat="43.93715" lon="0.59393">
        <ele>110.026</ele>
        <time>2016-09-26T20:21:06Z</time>
      </trkpt>
      <trkpt lat="43.93744" lon="0.59298">
        <ele>114.408</ele>
        <time>2016-09-26T20:21:26Z</time>
      </trkpt>
      <trkpt lat="43.93812" lon="0.59174">
        <ele>113.164</ele>
        <time>2016-09-26T20:21:46Z</time>
      </trkpt>
      <trkpt lat="43.93772" lon="0.59038">
        <ele>107.071</ele>
        <time>2016-09-26T20:22:06Z</time>
      </trkpt>
      <trkpt lat="43.93761" lon="0.58985">
        <ele>108.38</ele>
        <time>2016-09-26T20:22:26Z</time>
      </trkpt>
      <trkpt lat="43.9375" lon="0.58946">
        <ele>110.039</ele>
        <time>2016-09-26T20:22:46Z</time>
      </trkpt>
      <trkpt lat="43.93737" lon="0.58852">
        <ele>112.365</ele>
        <time>2016-09-26T20:23:06Z</time>
      </trkpt>
      <trkpt lat="43.93737" lon="0.58826">
        <ele>114.786</ele>
        <time>2016-09-26T20:23:26Z</time>
      </trkpt>
      <trkpt lat="43.93676" lon="0.5862">
        <ele>126.999</ele>
        <time>2016-09-26T20:23:46Z</time>
      </trkpt>
      <trkpt lat="43.93664" lon="0.58468">
        <ele>131.378</ele>
        <time>2016-09-26T20:24:06Z</time>
      </trkpt>
      <trkpt lat="43.93528" lon="0.58474">
        <ele>147.195</ele>
        <time>2016-09-26T20:24:26Z</time>
      </trkpt>
      <trkpt lat="43.93499" lon="0.58569">
        <ele>154.449</ele>
        <time>2016-09-26T20:24:46Z</time>
      </trkpt>
      <trkpt lat="43.93438" lon="0.58337">
        <ele>156.423</ele>
        <time>2016-09-26T20:25:06Z</time>
      </trkpt>
      <trkpt lat="43.93434" lon="0.58112">
        <ele>162.208</ele>
        <time>2016-09-26T20:25:26Z</time>
      </trkpt>
      <trkpt lat="43.93401" lon="0.57824">
        <ele>167.685</ele>
        <time>2016-09-26T20:25:46Z</time>
      </trkpt>
      <trkpt lat="43.93401" lon="0.57678">
        <ele>171.712</ele>
        <time>2016-09-26T20:26:06Z</time>
      </trkpt>
      <trkpt lat="43.93418" lon="0.57588">
        <ele>174.741</ele>
        <time>2016-09-26T20:26:26Z</time>
      </trkpt>
      <trkpt lat="43.93454" lon="0.57466">
        <ele>179.04</ele>
        <time>2016-09-26T20:26:46Z</time>
      </trkpt>
      <trkpt lat="43.9352" lon="0.57303">
        <ele>181.846</ele>
        <time>2016-09-26T20:27:06Z</time>
      </trkpt>
      <trkpt lat="43.93584" lon="0.57275">
        <ele>184.047</ele>
        <time>2016-09-26T20:27:26Z</time>
      </trkpt>
      <trkpt lat="43.93631" lon="0.57227">
        <ele>184.87</ele>
        <time>2016-09-26T20:27:46Z</time>
      </trkpt>
      <trkpt lat="43.93741" lon="0.56929">
        <ele>185.169</ele>
        <time>2016-09-26T20:28:06Z</time>
      </trkpt>
      <trkpt lat="43.93784" lon="0.56758">
        <ele>176.525</ele>
        <time>2016-09-26T20:28:26Z</time>
      </trkpt>
      <trkpt lat="43.93789" lon="0.56481">
        <ele>165.626</ele>
        <time>2016-09-26T20:28:46Z</time>
      </trkpt>
      <trkpt lat="43.93862" lon="0.56309">
        <ele>173.708</ele>
        <time>2016-09-26T20:29:06Z</time>
      </trkpt>
      <trkpt lat="43.9392" lon="0.5612">
        <ele>177.308</ele>
        <time>2016-09-26T20:29:26Z</time>
      </trkpt>
      <trkpt lat="43.93962" lon="0.55906">
        <ele>178.558</ele>
        <time>2016-09-26T20:29:46Z</time>
      </trkpt>
      <trkpt lat="43.94103" lon="0.55558">
        <ele>173.445</ele>
        <time>2016-09-26T20:30:06Z</time>
      </trkpt>
      <trkpt lat="43.94202" lon="0.5544">
        <ele>168.534</ele>
        <time>2016-09-26T20:30:26Z</time>
      </trkpt>
      <trkpt lat="43.94205" lon="0.55348">
        <ele>169.843</ele>
        <time>2016-09-26T20:30:46Z</time>
      </trkpt>
      <trkpt lat="43.94361" lon="0.5512">
        <ele>170.789</ele>
        <time>2016-09-26T20:31:06Z</time>
      </trkpt>
      <trkpt lat="43.94387" lon="0.5512">
        <ele>169.78</ele>
        <time>2016-09-26T20:31:26Z</time>
      </trkpt>
      <trkpt lat="43.9443" lon="0.55026">
        <ele>170.173</ele>
        <time>2016-09-26T20:31:46Z</time>
      </trkpt>
      <trkpt lat="43.94494" lon="0.54979">
        <ele>170.752</ele>
        <time>2016-09-26T20:32:06Z</time>
      </trkpt>
      <trkpt lat="43.94583" lon="0.54852">
        <ele>175.099</ele>
        <time>2016-09-26T20:32:26Z</time>
      </trkpt>
      <trkpt lat="43.9464" lon="0.54751">
        <ele>176.007</ele>
        <time>2016-09-26T20:32:46Z</time>
      </trkpt>
      <trkpt lat="43.94704" lon="0.54676">
        <ele>174.727</ele>
        <time>2016-09-26T20:33:06Z</time>
      </trkpt>
      <trkpt lat="43.94719" lon="0.54603">
        <ele>174.108</ele>
        <time>2016-09-26T20:33:26Z</time>
      </trkpt>
      <trkpt lat="43.94758" lon="0.54494">
        <ele>173.725</ele>
        <time>2016-09-26T20:33:46Z</time>
      </trkpt>
      <trkpt lat="43.94585" lon="0.54301">
        <ele>175.062</ele>
        <time>2016-09-26T20:34:06Z</time>
      </trkpt>
      <trkpt lat="43.9443" lon="0.5415">
        <ele>172.081</ele>
        <time>2016-09-26T20:34:26Z</time>
      </trkpt>
      <trkpt lat="43.94365" lon="0.54065">
        <ele>170.07</ele>
        <time>2016-09-26T20:34:46Z</time>
      </trkpt>
      <trkpt lat="43.94328" lon="0.54056">
        <ele>168.566</ele>
        <time>2016-09-26T20:35:06Z</time>
      </trkpt>
      <trkpt lat="43.94309" lon="0.54089">
        <ele>168.537</ele>
        <time>2021-01-03T12:07:00Z</time>
      </trkpt>
      <trkpt lat="43.94265" lon="0.53924">
        <ele>157.96</ele>
        <time>2021-01-03T12:07:20Z</time>
      </trkpt>
      <trkpt lat="43.94221" lon="0.53802">
        <ele>143.419</ele>
        <time>2021-01-03T12:07:40Z</time>
      </trkpt>
      <trkpt lat="43.94231" lon="0.53724">
        <ele>133.342</ele>
        <time>2021-01-03T12:08:00Z</time>
      </trkpt>
      <trkpt lat="43.94329" lon="0.5365">
        <ele>127.622</ele>
        <time>2021-01-03T12:08:20Z</time>
      </trkpt>
      <trkpt lat="43.94363" lon="0.53606">
        <ele>121.314</ele>
        <time>2016-09-25T16:19:55Z</time>
      </trkpt>
      <trkpt lat="43.94212" lon="0.5316">
        <ele>109.908</ele>
        <time>2016-09-25T16:20:15Z</time>
      </trkpt>
      <trkpt lat="43.94192" lon="0.53171">
        <ele>108.96</ele>
        <time>2016-09-25T16:20:35Z</time>
      </trkpt>
      <trkpt lat="43.94112" lon="0.52922">
        <ele>115.047</ele>
        <time>2016-09-25T16:20:55Z</time>
      </trkpt>
      <trkpt lat="43.94139" lon="0.52898">
        <ele>117.416</ele>
        <time>2016-09-25T16:21:15Z</time>
      </trkpt>
      <trkpt lat="43.94126" lon="0.52808">
        <ele>122.325</ele>
        <time>2016-09-25T16:21:35Z</time>
      </trkpt>
      <trkpt lat="43.94109" lon="0.52793">
        <ele>122.371</ele>
        <time>2016-09-25T16:21:55Z</time>
      </trkpt>
      <trkpt lat="43.94075" lon="0.52701">
        <ele>127.052</ele>
        <time>2016-09-25T16:22:15Z</time>
      </trkpt>
      <trkpt lat="43.94059" lon="0.52604">
        <ele>132.835</ele>
        <time>2016-09-25T16:22:35Z</time>
      </trkpt>
      <trkpt lat="43.94017" lon="0.5251">
        <ele>136.454</ele>
        <time>2016-09-25T16:22:55Z</time>
      </trkpt>
      <trkpt lat="43.9399" lon="0.52401">
        <ele>139.471</ele>
        <time>2016-09-25T16:23:15Z</time>
      </trkpt>
      <trkpt lat="43.93991" lon="0.52319">
        <ele>142.441</ele>
        <time>2016-09-25T16:23:35Z</time>
      </trkpt>
      <trkpt lat="43.94011" lon="0.52203">
        <ele>150.615</ele>
        <time>2016-09-25T16:23:55Z</time>
      </trkpt>
      <trkpt lat="43.94016" lon="0.52092">
        <ele>155.408</ele>
        <time>2016-09-25T16:24:15Z</time>
      </trkpt>
      <trkpt lat="43.93867" lon="0.51941">
        <ele>176.343</ele>
        <time>2016-09-25T16:24:35Z</time>
      </trkpt>
      <trkpt lat="43.93796" lon="0.51879">
        <ele>182.76</ele>
        <time>2016-09-25T16:24:55Z</time>
      </trkpt>
      <trkpt lat="43.9383" lon="0.5154">
        <ele>191.959</ele>
        <time>2016-09-25T16:25:15Z</time>
      </trkpt>
      <trkpt lat="43.9382" lon="0.51405">
        <ele>194.198</ele>
        <time>2016-09-25T16:25:35Z</time>
      </trkpt>
      <trkpt lat="43.93871" lon="0.51302">
        <ele>193.514</ele>
        <time>2016-09-25T16:25:55Z</time>
      </trkpt>
      <trkpt lat="43.93954" lon="0.51122">
        <ele>191.285</ele>
        <time>2016-09-25T16:26:15Z</time>
      </trkpt>
      <trkpt lat="43.93985" lon="0.51027">
        <ele>187.658</ele>
        <time>2016-09-25T16:26:35Z</time>
      </trkpt>
      <trkpt lat="43.94056" lon="0.50937">
        <ele>173.527</ele>
        <time>2016-09-25T16:26:55Z</time>
      </trkpt>
      <trkpt lat="43.9409" lon="0.50879">
        <ele>168.865</ele>
        <time>2016-09-25T16:27:15Z</time>
      </trkpt>
      <trkpt lat="43.94127" lon="0.50838">
        <ele>168.068</ele>
        <time>2016-09-25T16:27:35Z</time>
      </trkpt>
      <trkpt lat="43.94198" lon="0.50645">
        <ele>163.814</ele>
        <time>2016-09-25T16:27:55Z</time>
      </trkpt>
      <trkpt lat="43.94266" lon="0.50517">
        <ele>170.908</ele>
        <time>2016-09-25T16:28:15Z</time>
      </trkpt>
      <trkpt lat="43.9432" lon="0.50345">
        <ele>177.652</ele>
        <time>2016-09-25T16:28:35Z</time>
      </trkpt>
      <trkpt lat="43.9436" lon="0.50132">
        <ele>177.799</ele>
        <time>2016-09-25T16:28:55Z</time>
      </trkpt>
      <trkpt lat="43.94425" lon="0.49989">
        <ele>177.388</ele>
        <time>2016-09-25T16:29:15Z</time>
      </trkpt>
      <trkpt lat="43.94479" lon="0.49832">
        <ele>177.087</ele>
        <time>2016-09-25T16:29:35Z</time>
      </trkpt>
      <trkpt lat="43.94502" lon="0.49701">
        <ele>175.923</ele>
        <time>2016-09-25T16:29:55Z</time>
      </trkpt>
      <trkpt lat="43.94569" lon="0.49502">
        <ele>175.024</ele>
        <time>2016-09-25T16:30:15Z</time>
      </trkpt>
      <trkpt lat="43.94608" lon="0.4939">
        <ele>175.027</ele>
        <time>2016-09-25T16:30:35Z</time>
      </trkpt>
      <trkpt lat="43.94671" lon="0.49236">
        <ele>174.266</ele>
        <time>2016-09-25T16:30:55Z</time>
      </trkpt>
      <trkpt lat="43.94696" lon="0.49102">
        <ele>170.634</ele>
        <time>2016-09-25T16:31:15Z</time>
      </trkpt>
      <trkpt lat="43.94699" lon="0.48937">
        <ele>169.055</ele>
        <time>2016-09-25T16:31:35Z</time>
      </trkpt>
      <trkpt lat="43.94699" lon="0.48937">
        <ele>169.01</ele>
        <time>2016-09-25T16:31:55Z</time>
      </trkpt>
      <trkpt lat="43.94747" lon="0.48954">
        <ele>166.408</ele>
        <time>2016-09-25T16:32:15Z</time>
      </trkpt>
      <trkpt lat="43.94832" lon="0.48954">
        <ele>159.889</ele>
        <time>2016-09-25T16:32:35Z</time>
      </trkpt>
      <trkpt lat="43.94875" lon="0.48924">
        <ele>156.746</ele>
        <time>2016-09-25T16:32:55Z</time>
      </trkpt>
      <trkpt lat="43.95051" lon="0.48999">
        <ele>140.595</ele>
        <time>2016-09-25T16:33:15Z</time>
      </trkpt>
      <trkpt lat="43.95117" lon="0.49045">
        <ele>141.714</ele>
        <time>2016-09-25T16:33:35Z</time>
      </trkpt>
      <trkpt lat="43.95229" lon="0.4901">
        <ele>153.15</ele>
        <time>2016-09-25T16:33:55Z</time>
      </trkpt>
      <trkpt lat="43.954" lon="0.48989">
        <ele>150.451</ele>
        <time>2016-09-25T16:34:15Z</time>
      </trkpt>
      <trkpt lat="43.95621" lon="0.49126">
        <ele>172.164</ele>
        <time>2016-09-25T16:34:35Z</time>
      </trkpt>
      <trkpt lat="43.95924" lon="0.49107">
        <ele>148.623</ele>
        <time>2016-09-25T16:34:55Z</time>
      </trkpt>
      <trkpt lat="43.9601" lon="0.49148">
        <ele>160.537</ele>
        <time>2016-09-25T16:35:15Z</time>
      </trkpt>
      <trkpt lat="43.9607" lon="0.49253">
        <ele>164.549</ele>
        <time>2016-09-25T16:35:35Z</time>
      </trkpt>
      <trkpt lat="43.96095" lon="0.49276">
        <ele>164.413</ele>
        <time>2016-09-25T16:35:55Z</time>
      </trkpt>
      <trkpt lat="43.96124" lon="0.4936">
        <ele>168.408</ele>
        <time>2016-09-25T16:36:15Z</time>
      </trkpt>
      <trkpt lat="43.96242" lon="0.49424">
        <ele>182.219</ele>
        <time>2016-09-25T16:36:35Z</time>
      </trkpt>
      <trkpt lat="43.96335" lon="0.49472">
        <ele>196.156</ele>
        <time>2016-09-25T16:36:55Z</time>
      </trkpt>
      <trkpt lat="43.96413" lon="0.49497">
        <ele>204.925</ele>
        <time>2016-09-25T16:37:15Z</time>
      </trkpt>
      <trkpt lat="43.96424" lon="0.49454">
        <ele>205.074</ele>
        <time>2016-09-25T16:37:35Z</time>
      </trkpt>
      <trkpt lat="43.96477" lon="0.4936">
        <ele>205.02</ele>
        <time>2016-09-25T16:37:55Z</time>
      </trkpt>
      <trkpt lat="43.96501" lon="0.49203">
        <ele>200.931</ele>
        <time>2016-09-25T16:38:15Z</time>
      </trkpt>
      <trkpt lat="43.96558" lon="0.4913">
        <ele>204.484</ele>
        <time>2016-09-25T16:38:35Z</time>
      </trkpt>
      <trkpt lat="43.966" lon="0.49062">
        <ele>204.163</ele>
        <time>2016-09-25T16:38:55Z</time>
      </trkpt>
      <trkpt lat="43.96767" lon="0.48961">
        <ele>202.417</ele>
        <time>2016-09-25T16:39:15Z</time>
      </trkpt>
      <trkpt lat="43.9685" lon="0.4906">
        <ele>205.087</ele>
        <time>2016-09-25T16:39:35Z</time>
      </trkpt>
      <trkpt lat="43.96985" lon="0.48961">
        <ele>209.815</ele>
        <time>2016-09-25T16:39:55Z</time>
      </trkpt>
      <trkpt lat="43.9705" lon="0.48881">
        <ele>210.008</ele>
        <time>2016-09-25T16:40:15Z</time>
      </trkpt>
      <trkpt lat="43.97084" lon="0.48817">
        <ele>210.087</ele>
        <time>2016-09-25T16:40:35Z</time>
      </trkpt>
      <trkpt lat="43.97229" lon="0.48718">
        <ele>210.094</ele>
        <time>2016-09-25T16:40:55Z</time>
      </trkpt>
      <trkpt lat="43.97328" lon="0.48716">
        <ele>210.073</ele>
        <time>2016-09-25T16:41:15Z</time>
      </trkpt>
      <trkpt lat="43.97426" lon="0.48665">
        <ele>210.092</ele>
        <time>2016-09-25T16:41:35Z</time>
      </trkpt>
      <trkpt lat="43.97428" lon="0.48723">
        <ele>208.648</ele>
        <time>2016-09-25T16:41:55Z</time>
      </trkpt>
      <trkpt lat="43.97511" lon="0.49165">
        <ele>191.539</ele>
        <time>2016-09-25T16:42:15Z</time>
      </trkpt>
      <trkpt lat="43.97775" lon="0.49426">
        <ele>181.192</ele>
        <time>2016-09-25T16:42:35Z</time>
      </trkpt>
      <trkpt lat="43.97927" lon="0.49514">
        <ele>180.041</ele>
        <time>2016-09-25T16:42:55Z</time>
      </trkpt>
      <trkpt lat="43.98049" lon="0.49523">
        <ele>185.141</ele>
        <time>2021-01-03T12:32:00Z</time>
      </trkpt>
      <trkpt lat="43.98009" lon="0.49694">
        <ele>180.081</ele>
        <time>2021-01-03T12:32:20Z</time>
      </trkpt>
      <trkpt lat="43.98111" lon="0.49785">
        <ele>182.009</ele>
        <time>2021-01-03T12:32:40Z</time>
      </trkpt>
      <trkpt lat="43.9811" lon="0.49834">
        <ele>183.008</ele>
        <time>2021-01-03T12:33:00Z</time>
      </trkpt>
      <trkpt lat="43.98143" lon="0.49912">
        <ele>184.94</ele>
        <time>2021-01-03T12:33:20Z</time>
      </trkpt>
      <trkpt lat="43.98184" lon="0.49821">
        <ele>183.197</ele>
        <time>2021-01-03T12:33:40Z</time>
      </trkpt>
      <trkpt lat="43.98203" lon="0.49742">
        <ele>183.736</ele>
        <time>2021-01-03T12:34:00Z</time>
      </trkpt>
      <trkpt lat="43.98267" lon="0.49798">
        <ele>180.445</ele>
        <time>2021-01-03T12:34:20Z</time>
      </trkpt>
      <trkpt lat="43.98269" lon="0.49757">
        <ele>180.351</ele>
        <time>2021-01-03T12:34:40Z</time>
      </trkpt>
      <trkpt lat="43.98261" lon="0.49682">
        <ele>181.192</ele>
        <time>2021-01-03T12:35:00Z</time>
      </trkpt>
      <trkpt lat="43.98216" lon="0.49544">
        <ele>186.865</ele>
        <time>2021-01-03T12:35:20Z</time>
      </trkpt>
      <trkpt lat="43.98194" lon="0.49497">
        <ele>190.044</ele>
        <time>2016-09-25T16:43:35Z</time>
      </trkpt>
      <trkpt lat="43.98158" lon="0.49366">
        <ele>192.819</ele>
        <time>2016-09-25T16:43:55Z</time>
      </trkpt>
      <trkpt lat="43.98161" lon="0.49075">
        <ele>201.009</ele>
        <time>2016-09-25T16:44:15Z</time>
      </trkpt>
      <trkpt lat="43.98168" lon="0.48965">
        <ele>203.319</ele>
        <time>2016-09-25T16:44:35Z</time>
      </trkpt>
      <trkpt lat="43.98195" lon="0.48781">
        <ele>206.908</ele>
        <time>2016-09-25T16:44:55Z</time>
      </trkpt>
      <trkpt lat="43.98172" lon="0.48512">
        <ele>210.087</ele>
        <time>2016-09-25T16:45:15Z</time>
      </trkpt>
      <trkpt lat="43.98249" lon="0.48345">
        <ele>207.444</ele>
        <time>2016-09-25T16:45:35Z</time>
      </trkpt>
      <trkpt lat="43.98252" lon="0.48259">
        <ele>205.073</ele>
        <time>2016-09-25T16:45:55Z</time>
      </trkpt>
      <trkpt lat="43.98283" lon="0.48221">
        <ele>202.982</ele>
        <time>2016-09-25T16:46:15Z</time>
      </trkpt>
      <trkpt lat="43.98294" lon="0.48118">
        <ele>194.348</ele>
        <time>2016-09-25T16:46:35Z</time>
      </trkpt>
      <trkpt lat="43.98334" lon="0.47892">
        <ele>179.139</ele>
        <time>2016-09-25T16:46:55Z</time>
      </trkpt>
      <trkpt lat="43.98351" lon="0.47766">
        <ele>175.612</ele>
        <time>2016-09-25T16:47:15Z</time>
      </trkpt>
      <trkpt lat="43.98541" lon="0.47749">
        <ele>180.451</ele>
        <time>2016-09-25T16:47:35Z</time>
      </trkpt>
      <trkpt lat="43.9858" lon="0.47538">
        <ele>176.212</ele>
        <time>2016-09-25T16:47:55Z</time>
      </trkpt>
      <trkpt lat="43.98538" lon="0.47463">
        <ele>172.432</ele>
        <time>2016-09-25T16:48:15Z</time>
      </trkpt>
      <trkpt lat="43.9854" lon="0.47367">
        <ele>169.305</ele>
        <time>2016-09-25T16:48:35Z</time>
      </trkpt>
      <trkpt lat="43.98506" lon="0.47283">
        <ele>165.208</ele>
        <time>2016-09-25T16:48:55Z</time>
      </trkpt>
      <trkpt lat="43.98495" lon="0.47221">
        <ele>163.587</ele>
        <time>2016-09-25T16:49:15Z</time>
      </trkpt>
      <trkpt lat="43.98452" lon="0.47133">
        <ele>156.514</ele>
        <time>2016-09-25T16:49:35Z</time>
      </trkpt>
      <trkpt lat="43.98416" lon="0.47036">
        <ele>155.623</ele>
        <time>2016-09-25T16:49:55Z</time>
      </trkpt>
      <trkpt lat="43.98356" lon="0.4697">
        <ele>150.342</ele>
        <time>2016-09-25T16:50:15Z</time>
      </trkpt>
      <trkpt lat="43.983" lon="0.46794">
        <ele>146.088</ele>
        <time>2016-09-25T16:50:35Z</time>
      </trkpt>
      <trkpt lat="43.98172" lon="0.46695">
        <ele>133.039</ele>
        <time>2016-09-25T16:50:55Z</time>
      </trkpt>
      <trkpt lat="43.98086" lon="0.4648">
        <ele>141.422</ele>
        <time>2016-09-25T16:51:15Z</time>
      </trkpt>
      <trkpt lat="43.98084" lon="0.4636">
        <ele>144.961</ele>
        <time>2016-09-25T16:51:35Z</time>
      </trkpt>
      <trkpt lat="43.98015" lon="0.46266">
        <ele>162.348</ele>
        <time>2016-09-25T16:51:55Z</time>
      </trkpt>
      <trkpt lat="43.9799" lon="0.46189">
        <ele>165.061</ele>
        <time>2016-09-25T16:52:15Z</time>
      </trkpt>
      <trkpt lat="43.97967" lon="0.46225">
        <ele>165.017</ele>
        <time>2016-09-25T16:52:35Z</time>
      </trkpt>
      <trkpt lat="43.97876" lon="0.46174">
        <ele>154.308</ele>
        <time>2016-09-25T16:52:55Z</time>
      </trkpt>
      <trkpt lat="43.97836" lon="0.46126">
        <ele>147.84</ele>
        <time>2016-09-25T16:53:15Z</time>
      </trkpt>
      <trkpt lat="43.97797" lon="0.46109">
        <ele>140.467</ele>
        <time>2016-09-25T16:53:35Z</time>
      </trkpt>
      <trkpt lat="43.97738" lon="0.46113">
        <ele>130.576</ele>
        <time>2016-09-25T16:53:55Z</time>
      </trkpt>
      <trkpt lat="43.97516" lon="0.45968">
        <ele>112.535</ele>
        <time>2016-09-25T16:54:15Z</time>
      </trkpt>
      <trkpt lat="43.97399" lon="0.46006">
        <ele>121.071</ele>
        <time>2016-09-25T16:54:35Z</time>
      </trkpt>
      <trkpt lat="43.97351" lon="0.4604">
        <ele>124.892</ele>
        <time>2016-09-25T16:54:55Z</time>
      </trkpt>
      <trkpt lat="43.97243" lon="0.46028">
        <ele>139.635</ele>
        <time>2016-09-25T16:55:15Z</time>
      </trkpt>
      <trkpt lat="43.97128" lon="0.45912">
        <ele>162.464</ele>
        <time>2016-09-25T16:55:35Z</time>
      </trkpt>
      <trkpt lat="43.97119" lon="0.4585">
        <ele>164.778</ele>
        <time>2016-09-25T16:55:55Z</time>
      </trkpt>
      <trkpt lat="43.97121" lon="0.45794">
        <ele>163.133</ele>
        <time>2016-09-25T16:56:15Z</time>
      </trkpt>
      <trkpt lat="43.97071" lon="0.45669">
        <ele>148.726</ele>
        <time>2016-09-25T16:56:35Z</time>
      </trkpt>
      <trkpt lat="43.9708" lon="0.45628">
        <ele>144.508</ele>
        <time>2016-09-25T16:56:55Z</time>
      </trkpt>
      <trkpt lat="43.97037" lon="0.45208">
        <ele>102.083</ele>
        <time>2016-09-25T16:57:15Z</time>
      </trkpt>
      <trkpt lat="43.96975" lon="0.45075">
        <ele>104.28</ele>
        <time>2016-09-25T16:57:35Z</time>
      </trkpt>
      <trkpt lat="43.96906" lon="0.45045">
        <ele>105.429</ele>
        <time>2016-09-25T16:57:55Z</time>
      </trkpt>
      <trkpt lat="43.96824" lon="0.45032">
        <ele>104.028</ele>
        <time>2016-09-25T16:58:15Z</time>
      </trkpt>
      <trkpt lat="43.96773" lon="0.45008">
        <ele>109.634</ele>
        <time>2016-09-25T16:58:35Z</time>
      </trkpt>
      <trkpt lat="43.96645" lon="0.448">
        <ele>120.525</ele>
        <time>2016-09-25T16:58:55Z</time>
      </trkpt>
      <trkpt lat="43.96563" lon="0.44717">
        <ele>133.458</ele>
        <time>2016-09-25T16:59:15Z</time>
      </trkpt>
      <trkpt lat="43.96528" lon="0.44652">
        <ele>139.537</ele>
        <time>2016-09-25T16:59:35Z</time>
      </trkpt>
      <trkpt lat="43.96501" lon="0.44633">
        <ele>142.148</ele>
        <time>2016-09-25T16:59:55Z</time>
      </trkpt>
      <trkpt lat="43.96483" lon="0.44646">
        <ele>143.661</ele>
        <time>2016-09-25T17:00:15Z</time>
      </trkpt>
      <trkpt lat="43.9644" lon="0.44611">
        <ele>150.317</ele>
        <time>2016-09-25T17:00:35Z</time>
      </trkpt>
      <trkpt lat="43.96461" lon="0.44393">
        <ele>153.108</ele>
        <time>2016-09-25T17:00:55Z</time>
      </trkpt>
      <trkpt lat="43.96386" lon="0.44324">
        <ele>160.47</ele>
        <time>2016-09-25T17:01:15Z</time>
      </trkpt>
      <trkpt lat="43.96342" lon="0.44234">
        <ele>164.697</ele>
        <time>2016-09-25T17:01:35Z</time>
      </trkpt>
      <trkpt lat="43.96387" lon="0.44163">
        <ele>165.096</ele>
        <time>2016-09-25T17:01:55Z</time>
      </trkpt>
      <trkpt lat="43.96389" lon="0.44118">
        <ele>165.065</ele>
        <time>2016-09-25T17:02:15Z</time>
      </trkpt>
      <trkpt lat="43.96318" lon="0.44077">
        <ele>164.921</ele>
        <time>2016-09-25T17:02:35Z</time>
      </trkpt>
      <trkpt lat="43.96072" lon="0.44021">
        <ele>163.542</ele>
        <time>2016-09-25T17:02:55Z</time>
      </trkpt>
      <trkpt lat="43.95996" lon="0.44038">
        <ele>163.675</ele>
        <time>2016-09-25T17:03:15Z</time>
      </trkpt>
      <trkpt lat="43.95927" lon="0.44069">
        <ele>163.974</ele>
        <time>2016-09-25T17:03:35Z</time>
      </trkpt>
      <trkpt lat="43.95908" lon="0.43757">
        <ele>148.269</ele>
        <time>2016-09-25T17:03:55Z</time>
      </trkpt>
      <trkpt lat="43.9591" lon="0.43635">
        <ele>144.704</ele>
        <time>2016-09-25T17:04:15Z</time>
      </trkpt>
      <trkpt lat="43.95928" lon="0.43601">
        <ele>142.524</ele>
        <time>2016-09-25T17:04:35Z</time>
      </trkpt>
      <trkpt lat="43.9595" lon="0.43476">
        <ele>135.408</ele>
        <time>2016-09-25T17:04:55Z</time>
      </trkpt>
      <trkpt lat="43.9595" lon="0.43395">
        <ele>125.062</ele>
        <time>2016-09-25T17:05:15Z</time>
      </trkpt>
      <trkpt lat="43.95819" lon="0.43403">
        <ele>126.649</ele>
        <time>2016-09-25T17:05:35Z</time>
      </trkpt>
      <trkpt lat="43.95811" lon="0.43384">
        <ele>125.868</ele>
        <time>2016-09-25T17:05:55Z</time>
      </trkpt>
      <trkpt lat="43.95846" lon="0.43352">
        <ele>125.247</ele>
        <time>2016-09-25T17:06:15Z</time>
      </trkpt>
      <trkpt lat="43.95888" lon="0.43348">
        <ele>123.573</ele>
        <time>2016-09-25T17:06:35Z</time>
      </trkpt>
      <trkpt lat="43.95927" lon="0.43302">
        <ele>124.594</ele>
        <time>2016-09-25T17:06:55Z</time>
      </trkpt>
      <trkpt lat="43.96018" lon="0.43234">
        <ele>125.137</ele>
        <time>2016-09-25T17:07:15Z</time>
      </trkpt>
      <trkpt lat="43.961" lon="0.43189">
        <ele>124.366</ele>
        <time>2016-09-25T17:07:35Z</time>
      </trkpt>
      <trkpt lat="43.96162" lon="0.43103">
        <ele>125.147</ele>
        <time>2016-09-25T17:07:55Z</time>
      </trkpt>
      <trkpt lat="43.96251" lon="0.43032">
        <ele>123.829</ele>
        <time>2016-09-25T17:08:15Z</time>
      </trkpt>
      <trkpt lat="43.96297" lon="0.4294">
        <ele>124.221</ele>
        <time>2016-09-25T17:08:35Z</time>
      </trkpt>
      <trkpt lat="43.96352" lon="0.42882">
        <ele>124.208</ele>
        <time>2016-09-25T17:08:55Z</time>
      </trkpt>
      <trkpt lat="43.96402" lon="0.4283">
        <ele>124.92</ele>
        <time>2016-09-25T17:09:15Z</time>
      </trkpt>
      <trkpt lat="43.96458" lon="0.42704">
        <ele>131.077</ele>
        <time>2016-09-25T17:09:35Z</time>
      </trkpt>
      <trkpt lat="43.96486" lon="0.42543">
        <ele>133.026</ele>
        <time>2016-09-25T17:09:55Z</time>
      </trkpt>
      <trkpt lat="43.96466" lon="0.42425">
        <ele>131.965</ele>
        <time>2016-09-25T17:10:15Z</time>
      </trkpt>
      <trkpt lat="43.96416" lon="0.42234">
        <ele>124.931</ele>
        <time>2016-09-25T17:10:35Z</time>
      </trkpt>
      <trkpt lat="43.96362" lon="0.42099">
        <ele>125.522</ele>
        <time>2016-09-25T17:10:55Z</time>
      </trkpt>
      <trkpt lat="43.96352" lon="0.42015">
        <ele>126.775</ele>
        <time>2016-09-25T17:11:15Z</time>
      </trkpt>
      <trkpt lat="43.96338" lon="0.41953">
        <ele>130.164</ele>
        <time>2016-09-25T17:11:35Z</time>
      </trkpt>
      <trkpt lat="43.96319" lon="0.41648">
        <ele>139.966</ele>
        <time>2016-09-25T17:11:55Z</time>
      </trkpt>
      <trkpt lat="43.96336" lon="0.41537">
        <ele>142.629</ele>
        <time>2016-09-25T17:12:15Z</time>
      </trkpt>
      <trkpt lat="43.96376" lon="0.41444">
        <ele>145.521</ele>
        <time>2016-09-25T17:12:35Z</time>
      </trkpt>
      <trkpt lat="43.96348" lon="0.4135">
        <ele>149.308</ele>
        <time>2016-09-25T17:12:55Z</time>
      </trkpt>
      <trkpt lat="43.9631" lon="0.41152">
        <ele>163.012</ele>
        <time>2016-09-25T17:13:15Z</time>
      </trkpt>
      <trkpt lat="43.96307" lon="0.41101">
        <ele>165.739</ele>
        <time>2016-09-25T17:13:35Z</time>
      </trkpt>
      <trkpt lat="43.96158" lon="0.40511">
        <ele>156.598</ele>
        <time>2016-09-25T17:13:55Z</time>
      </trkpt>
      <trkpt lat="43.96138" lon="0.40378">
        <ele>151.577</ele>
        <time>2016-09-25T17:14:15Z</time>
      </trkpt>
      <trkpt lat="43.96063" lon="0.40034">
        <ele>144.713</ele>
        <time>2016-09-25T17:14:35Z</time>
      </trkpt>
      <trkpt lat="43.96009" lon="0.39751">
        <ele>144.464</ele>
        <time>2016-09-25T17:14:55Z</time>
      </trkpt>
      <trkpt lat="43.95993" lon="0.39573">
        <ele>143.067</ele>
        <time>2016-09-25T17:15:15Z</time>
      </trkpt>
      <trkpt lat="43.95965" lon="0.39361">
        <ele>142.716</ele>
        <time>2016-09-25T17:15:35Z</time>
      </trkpt>
      <trkpt lat="43.95972" lon="0.39165">
        <ele>140.167</ele>
        <time>2016-09-25T17:15:55Z</time>
      </trkpt>
      <trkpt lat="43.95944" lon="0.38949">
        <ele>134.481</ele>
        <time>2016-09-25T17:16:15Z</time>
      </trkpt>
      <trkpt lat="43.95913" lon="0.38603">
        <ele>117.919</ele>
        <time>2016-09-25T17:16:35Z</time>
      </trkpt>
      <trkpt lat="43.95928" lon="0.3849">
        <ele>114.608</ele>
        <time>2016-09-25T17:16:55Z</time>
      </trkpt>
      <trkpt lat="43.95921" lon="0.3826">
        <ele>106.442</ele>
        <time>2016-09-25T17:17:15Z</time>
      </trkpt>
      <trkpt lat="43.95887" lon="0.38234">
        <ele>104.799</ele>
        <time>2016-09-25T17:17:35Z</time>
      </trkpt>
      <trkpt lat="43.95762" lon="0.3806">
        <ele>87.028</ele>
        <time>2016-09-25T17:17:55Z</time>
      </trkpt>
      <trkpt lat="43.95647" lon="0.38013">
        <ele>76.597</ele>
        <time>2016-09-25T17:18:15Z</time>
      </trkpt>
      <trkpt lat="43.95721" lon="0.37653">
        <ele>79.093</ele>
        <time>2016-09-25T17:18:35Z</time>
      </trkpt>
      <trkpt lat="43.95685" lon="0.3758">
        <ele>81.554</ele>
        <time>2021-01-03T13:11:00Z</time>
      </trkpt>
      <trkpt lat="43.95719" lon="0.37524">
        <ele>81.397</ele>
        <time>2021-01-03T13:11:20Z</time>
      </trkpt>
      <trkpt lat="43.95758" lon="0.37371">
        <ele>83.196</ele>
        <time>2021-01-03T13:11:40Z</time>
      </trkpt>
      <trkpt lat="43.95758" lon="0.37221">
        <ele>84.783</ele>
        <time>2021-01-03T13:12:00Z</time>
      </trkpt>
      <trkpt lat="43.95746" lon="0.37179">
        <ele>85.025</ele>
        <time>2021-01-03T13:12:20Z</time>
      </trkpt>
      <trkpt lat="43.95706" lon="0.37153">
        <ele>85.017</ele>
        <time>2021-01-03T13:12:40Z</time>
      </trkpt>
      <trkpt lat="43.95727" lon="0.37085">
        <ele>82.908</ele>
        <time>2021-01-03T13:13:00Z</time>
      </trkpt>
      <trkpt lat="43.95733" lon="0.3699">
        <ele>77.564</ele>
        <time>2021-01-03T13:13:20Z</time>
      </trkpt>
      <trkpt lat="43.95717" lon="0.36951">
        <ele>75.621</ele>
        <time>2021-01-03T13:13:40Z</time>
      </trkpt>
      <trkpt lat="43.95673" lon="0.36911">
        <ele>73.22</ele>
        <time>2021-01-03T13:14:00Z</time>
      </trkpt>
      <trkpt lat="43.95677" lon="0.36842">
        <ele>70.029</ele>
        <time>2021-01-03T13:14:20Z</time>
      </trkpt>
      <trkpt lat="43.95586" lon="0.36826">
        <ele>70.075</ele>
        <time>2021-01-03T13:14:40Z</time>
      </trkpt>
      <trkpt lat="43.95565" lon="0.36796">
        <ele>70.076</ele>
        <time>2021-01-03T13:15:00Z</time>
      </trkpt>
      <trkpt lat="43.95551" lon="0.36618">
        <ele>71.869</ele>
        <time>2016-09-25T17:22:35Z</time>
      </trkpt>
      <trkpt lat="43.95458" lon="0.3647">
        <ele>71.098</ele>
        <time>2016-09-25T17:22:55Z</time>
      </trkpt>
      <trkpt lat="43.95345" lon="0.36429">
        <ele>70.799</ele>
        <time>2016-09-25T17:23:15Z</time>
      </trkpt>
      <trkpt lat="43.95365" lon="0.36324">
        <ele>72.307</ele>
        <time>2016-09-25T17:23:35Z</time>
      </trkpt>
      <trkpt lat="43.95399" lon="0.36258">
        <ele>73.827</ele>
        <time>2016-09-25T17:23:55Z</time>
      </trkpt>
      <trkpt lat="43.95356" lon="0.36223">
        <ele>74.408</ele>
        <time>2016-09-25T17:24:15Z</time>
      </trkpt>
      <trkpt lat="43.95302" lon="0.36219">
        <ele>80.125</ele>
        <time>2016-09-25T17:24:35Z</time>
      </trkpt>
      <trkpt lat="43.95246" lon="0.36174">
        <ele>82.812</ele>
        <time>2016-09-25T17:24:55Z</time>
      </trkpt>
      <trkpt lat="43.95144" lon="0.35889">
        <ele>86.221</ele>
        <time>2016-09-25T17:25:15Z</time>
      </trkpt>
      <trkpt lat="43.95084" lon="0.35779">
        <ele>87.07</ele>
        <time>2016-09-25T17:25:35Z</time>
      </trkpt>
      <trkpt lat="43.95033" lon="0.35759">
        <ele>86.766</ele>
        <time>2021-01-03T13:18:40Z</time>
      </trkpt>
      <trkpt lat="43.94954" lon="0.35758">
        <ele>85.177</ele>
        <time>2021-01-03T13:19:00Z</time>
      </trkpt>
      <trkpt lat="43.94981" lon="0.35614">
        <ele>88.95</ele>
        <time>2016-09-25T17:26:35Z</time>
      </trkpt>
      <trkpt lat="43.94945" lon="0.35571">
        <ele>89.029</ele>
        <time>2016-09-25T17:26:55Z</time>
      </trkpt>
      <trkpt lat="43.94923" lon="0.35522">
        <ele>89.932</ele>
        <time>2016-09-25T17:27:15Z</time>
      </trkpt>
      <trkpt lat="43.94908" lon="0.35442">
        <ele>93.992</ele>
        <time>2016-09-25T17:27:35Z</time>
      </trkpt>
      <trkpt lat="43.94778" lon="0.35333">
        <ele>108.011</ele>
        <time>2016-09-25T17:27:55Z</time>
      </trkpt>
      <trkpt lat="43.94752" lon="0.35251">
        <ele>110.108</ele>
        <time>2016-09-25T17:28:15Z</time>
      </trkpt>
      <trkpt lat="43.94769" lon="0.35103">
        <ele>112.119</ele>
        <time>2016-09-25T17:28:35Z</time>
      </trkpt>
      <trkpt lat="43.9472" lon="0.34745">
        <ele>106.896</ele>
        <time>2016-09-25T17:28:55Z</time>
      </trkpt>
      <trkpt lat="43.94696" lon="0.34644">
        <ele>107.915</ele>
        <time>2016-09-25T17:29:15Z</time>
      </trkpt>
      <trkpt lat="43.94645" lon="0.34552">
        <ele>105.844</ele>
        <time>2016-09-25T17:29:35Z</time>
      </trkpt>
      <trkpt lat="43.94542" lon="0.34509">
        <ele>109.76</ele>
        <time>2016-09-25T17:29:55Z</time>
      </trkpt>
      <trkpt lat="43.94491" lon="0.34445">
        <ele>115.061</ele>
        <time>2016-09-25T17:30:15Z</time>
      </trkpt>
      <trkpt lat="43.94475" lon="0.34331">
        <ele>116.284</ele>
        <time>2016-09-25T17:30:35Z</time>
      </trkpt>
      <trkpt lat="43.94394" lon="0.34009">
        <ele>110.393</ele>
        <time>2016-09-25T17:30:55Z</time>
      </trkpt>
      <trkpt lat="43.94333" lon="0.33895">
        <ele>107.833</ele>
        <time>2016-09-25T17:31:15Z</time>
      </trkpt>
      <trkpt lat="43.94285" lon="0.33586">
        <ele>118.923</ele>
        <time>2016-09-25T17:31:35Z</time>
      </trkpt>
      <trkpt lat="43.94307" lon="0.33301">
        <ele>135.415</ele>
        <time>2016-09-25T17:31:55Z</time>
      </trkpt>
      <trkpt lat="43.94241" lon="0.33217">
        <ele>139.708</ele>
        <time>2016-09-25T17:32:15Z</time>
      </trkpt>
      <trkpt lat="43.94188" lon="0.3311">
        <ele>150.519</ele>
        <time>2016-09-25T17:32:35Z</time>
      </trkpt>
      <trkpt lat="43.94153" lon="0.33069">
        <ele>153.086</ele>
        <time>2016-09-25T17:32:55Z</time>
      </trkpt>
      <trkpt lat="43.94126" lon="0.32932">
        <ele>153.375</ele>
        <time>2016-09-25T17:33:15Z</time>
      </trkpt>
      <trkpt lat="43.94097" lon="0.32857">
        <ele>150.914</ele>
        <time>2016-09-25T17:33:35Z</time>
      </trkpt>
      <trkpt lat="43.94066" lon="0.32668">
        <ele>156.77</ele>
        <time>2016-09-25T17:33:55Z</time>
      </trkpt>
      <trkpt lat="43.94024" lon="0.32556">
        <ele>168.371</ele>
        <time>2016-09-25T17:34:15Z</time>
      </trkpt>
      <trkpt lat="43.9401" lon="0.32451">
        <ele>172.894</ele>
        <time>2016-09-25T17:34:35Z</time>
      </trkpt>
      <trkpt lat="43.94009" lon="0.32359">
        <ele>174.453</ele>
        <time>2016-09-25T17:34:55Z</time>
      </trkpt>
      <trkpt lat="43.93967" lon="0.32159">
        <ele>175.034</ele>
        <time>2016-09-25T17:35:15Z</time>
      </trkpt>
      <trkpt lat="43.93932" lon="0.32054">
        <ele>175.055</ele>
        <time>2016-09-25T17:35:35Z</time>
      </trkpt>
      <trkpt lat="43.93925" lon="0.31923">
        <ele>175.01</ele>
        <time>2016-09-25T17:35:55Z</time>
      </trkpt>
      <trkpt lat="43.93828" lon="0.31754">
        <ele>154.808</ele>
        <time>2016-09-25T17:36:15Z</time>
      </trkpt>
      <trkpt lat="43.93774" lon="0.31627">
        <ele>142.749</ele>
        <time>2016-09-25T17:36:35Z</time>
      </trkpt>
      <trkpt lat="43.93635" lon="0.31513">
        <ele>128.786</ele>
        <time>2016-09-25T17:36:55Z</time>
      </trkpt>
      <trkpt lat="43.93539" lon="0.31355">
        <ele>110.715</ele>
        <time>2016-09-25T17:37:15Z</time>
      </trkpt>
      <trkpt lat="43.93535" lon="0.31307">
        <ele>106.674</ele>
        <time>2016-09-25T17:37:35Z</time>
      </trkpt>
      <trkpt lat="43.93516" lon="0.31295">
        <ele>106.89</ele>
        <time>2016-09-25T17:37:55Z</time>
      </trkpt>
      <trkpt lat="43.93531" lon="0.31219">
        <ele>101.361</ele>
        <time>2016-09-25T17:38:15Z</time>
      </trkpt>
      <trkpt lat="43.93525" lon="0.31129">
        <ele>99.674</ele>
        <time>2016-09-25T17:38:35Z</time>
      </trkpt>
      <trkpt lat="43.93536" lon="0.3091">
        <ele>88.523</ele>
        <time>2016-09-25T17:38:55Z</time>
      </trkpt>
      <trkpt lat="43.93425" lon="0.30726">
        <ele>83.257</ele>
        <time>2016-09-25T17:39:15Z</time>
      </trkpt>
      <trkpt lat="43.93399" lon="0.30565">
        <ele>76.6</ele>
        <time>2016-09-25T17:39:35Z</time>
      </trkpt>
      <trkpt lat="43.93354" lon="0.30475">
        <ele>79.22</ele>
        <time>2016-09-25T17:39:55Z</time>
      </trkpt>
      <trkpt lat="43.93341" lon="0.30325">
        <ele>82.208</ele>
        <time>2016-09-25T17:40:15Z</time>
      </trkpt>
      <trkpt lat="43.93406" lon="0.30305">
        <ele>81.421</ele>
        <time>2016-09-25T17:40:35Z</time>
      </trkpt>
      <trkpt lat="43.93501" lon="0.302">
        <ele>81.858</ele>
        <time>2016-09-25T17:40:55Z</time>
      </trkpt>
      <trkpt lat="43.93587" lon="0.30044">
        <ele>82.197</ele>
        <time>2016-09-25T17:41:15Z</time>
      </trkpt>
      <trkpt lat="43.93777" lon="0.29846">
        <ele>81.646</ele>
        <time>2016-09-25T17:41:35Z</time>
      </trkpt>
      <trkpt lat="43.93703" lon="0.2961">
        <ele>89.032</ele>
        <time>2016-09-25T17:41:55Z</time>
      </trkpt>
      <trkpt lat="43.93721" lon="0.29539">
        <ele>90.063</ele>
        <time>2016-09-25T17:42:15Z</time>
      </trkpt>
      <trkpt lat="43.93789" lon="0.29205">
        <ele>107.986</ele>
        <time>2016-09-25T17:42:35Z</time>
      </trkpt>
      <trkpt lat="43.93827" lon="0.29136">
        <ele>110.095</ele>
        <time>2016-09-25T17:42:55Z</time>
      </trkpt>
      <trkpt lat="43.93856" lon="0.28778">
        <ele>113.275</ele>
        <time>2016-09-25T17:43:15Z</time>
      </trkpt>
      <trkpt lat="43.93856" lon="0.2858">
        <ele>120.428</ele>
        <time>2016-09-25T17:43:35Z</time>
      </trkpt>
      <trkpt lat="43.93884" lon="0.28344">
        <ele>124.82</ele>
        <time>2016-09-25T17:43:55Z</time>
      </trkpt>
      <trkpt lat="43.938" lon="0.28123">
        <ele>125.008</ele>
        <time>2016-09-25T17:44:15Z</time>
      </trkpt>
      <trkpt lat="43.93666" lon="0.27805">
        <ele>125.183</ele>
        <time>2016-09-25T17:44:35Z</time>
      </trkpt>
      <trkpt lat="43.93613" lon="0.27524">
        <ele>132.82</ele>
        <time>2016-09-25T17:44:55Z</time>
      </trkpt>
      <trkpt lat="43.9385" lon="0.27308">
        <ele>121.039</ele>
        <time>2016-09-25T17:45:15Z</time>
      </trkpt>
      <trkpt lat="43.93899" lon="0.27284">
        <ele>125.528</ele>
        <time>2016-09-25T17:45:35Z</time>
      </trkpt>
      <trkpt lat="43.94038" lon="0.2717">
        <ele>137.864</ele>
        <time>2016-09-25T17:45:55Z</time>
      </trkpt>
      <trkpt lat="43.94044" lon="0.26733">
        <ele>141.335</ele>
        <time>2016-09-25T17:46:15Z</time>
      </trkpt>
      <trkpt lat="43.94075" lon="0.26597">
        <ele>151.198</ele>
        <time>2016-09-25T17:46:35Z</time>
      </trkpt>
      <trkpt lat="43.94092" lon="0.26344">
        <ele>161.377</ele>
        <time>2016-09-25T17:46:55Z</time>
      </trkpt>
      <trkpt lat="43.94086" lon="0.26207">
        <ele>162.026</ele>
        <time>2016-09-25T17:47:15Z</time>
      </trkpt>
      <trkpt lat="43.94098" lon="0.26132">
        <ele>162.047</ele>
        <time>2016-09-25T17:47:35Z</time>
      </trkpt>
      <trkpt lat="43.94188" lon="0.25902">
        <ele>161.911</ele>
        <time>2016-09-25T17:47:55Z</time>
      </trkpt>
      <trkpt lat="43.94326" lon="0.25432">
        <ele>155.008</ele>
        <time>2016-09-25T17:48:15Z</time>
      </trkpt>
      <trkpt lat="43.94424" lon="0.25145">
        <ele>153.588</ele>
        <time>2016-09-25T17:48:35Z</time>
      </trkpt>
      <trkpt lat="43.94602" lon="0.24997">
        <ele>153.995</ele>
        <time>2016-09-25T17:48:55Z</time>
      </trkpt>
      <trkpt lat="43.94747" lon="0.24812">
        <ele>150.094</ele>
        <time>2016-09-25T17:49:15Z</time>
      </trkpt>
      <trkpt lat="43.94837" lon="0.24709">
        <ele>150.063</ele>
        <time>2016-09-25T17:49:35Z</time>
      </trkpt>
      <trkpt lat="43.94962" lon="0.24499">
        <ele>150.069</ele>
        <time>2016-09-25T17:49:55Z</time>
      </trkpt>
      <trkpt lat="43.95039" lon="0.24192">
        <ele>140.27</ele>
        <time>2016-09-25T17:50:15Z</time>
      </trkpt>
      <trkpt lat="43.95027" lon="0.24074">
        <ele>138.863</ele>
        <time>2016-09-25T17:50:35Z</time>
      </trkpt>
      <trkpt lat="43.94996" lon="0.23971">
        <ele>129.172</ele>
        <time>2016-09-25T17:50:55Z</time>
      </trkpt>
      <trkpt lat="43.94995" lon="0.23784">
        <ele>115.825</ele>
        <time>2016-09-25T17:51:15Z</time>
      </trkpt>
      <trkpt lat="43.94984" lon="0.23643">
        <ele>106.626</ele>
        <time>2016-09-25T17:51:35Z</time>
      </trkpt>
      <trkpt lat="43.94991" lon="0.23531">
        <ele>100.108</ele>
        <time>2016-09-25T17:51:55Z</time>
      </trkpt>
      <trkpt lat="43.95012" lon="0.23422">
        <ele>99.008</ele>
        <time>2016-09-25T17:52:15Z</time>
      </trkpt>
      <trkpt lat="43.95013" lon="0.23224">
        <ele>111.748</ele>
        <time>2016-09-25T17:52:35Z</time>
      </trkpt>
      <trkpt lat="43.95027" lon="0.2304">
        <ele>126.125</ele>
        <time>2016-09-25T17:52:55Z</time>
      </trkpt>
      <trkpt lat="43.95029" lon="0.22877">
        <ele>134.454</ele>
        <time>2016-09-25T17:53:15Z</time>
      </trkpt>
      <trkpt lat="43.95039" lon="0.22772">
        <ele>136.923</ele>
        <time>2016-09-25T17:53:35Z</time>
      </trkpt>
      <trkpt lat="43.95107" lon="0.22458">
        <ele>143.459</ele>
        <time>2016-09-25T17:53:55Z</time>
      </trkpt>
      <trkpt lat="43.95024" lon="0.22426">
        <ele>151.29</ele>
        <time>2016-09-25T17:54:15Z</time>
      </trkpt>
      <trkpt lat="43.94954" lon="0.22291">
        <ele>155.683</ele>
        <time>2016-09-25T17:54:35Z</time>
      </trkpt>
      <trkpt lat="43.94931" lon="0.22104">
        <ele>158.652</ele>
        <time>2016-09-25T17:54:55Z</time>
      </trkpt>
      <trkpt lat="43.94869" lon="0.2181">
        <ele>162.375</ele>
        <time>2016-09-25T17:55:15Z</time>
      </trkpt>
      <trkpt lat="43.94868" lon="0.2166">
        <ele>157.828</ele>
        <time>2016-09-25T17:55:35Z</time>
      </trkpt>
      <trkpt lat="43.94908" lon="0.21452">
        <ele>149.92</ele>
        <time>2016-09-25T17:55:55Z</time>
      </trkpt>
      <trkpt lat="43.95052" lon="0.20948">
        <ele>134.408</ele>
        <time>2016-09-25T17:56:15Z</time>
      </trkpt>
      <trkpt lat="43.95033" lon="0.20888">
        <ele>131.863</ele>
        <time>2016-09-25T17:56:35Z</time>
      </trkpt>
      <trkpt lat="43.95022" lon="0.20697">
        <ele>131.29</ele>
        <time>2016-09-25T17:56:55Z</time>
      </trkpt>
      <trkpt lat="43.95015" lon="0.20051">
        <ele>119.939</ele>
        <time>2016-09-25T17:57:15Z</time>
      </trkpt>
      <trkpt lat="43.94948" lon="0.20049">
        <ele>113.428</ele>
        <time>2016-09-25T17:57:35Z</time>
      </trkpt>
      <trkpt lat="43.94925" lon="0.19931">
        <ele>106.654</ele>
        <time>2016-09-25T17:57:55Z</time>
      </trkpt>
      <trkpt lat="43.94942" lon="0.19817">
        <ele>106.475</ele>
        <time>2016-09-25T17:58:15Z</time>
      </trkpt>
      <trkpt lat="43.94998" lon="0.19821">
        <ele>110.838</ele>
        <time>2016-09-25T17:58:35Z</time>
      </trkpt>
      <trkpt lat="43.94971" lon="0.19776">
        <ele>101.377</ele>
        <time>2016-09-25T17:58:55Z</time>
      </trkpt>
      <trkpt lat="43.9491" lon="0.19765">
        <ele>89.588</ele>
        <time>2016-09-25T17:59:15Z</time>
      </trkpt>
      <trkpt lat="43.94839" lon="0.19847">
        <ele>83.824</ele>
        <time>2016-09-25T17:59:35Z</time>
      </trkpt>
      <trkpt lat="43.94713" lon="0.19875">
        <ele>87.926</ele>
        <time>2016-09-25T17:59:55Z</time>
      </trkpt>
      <trkpt lat="43.94632" lon="0.19883">
        <ele>85.808</ele>
        <time>2016-09-25T18:00:15Z</time>
      </trkpt>
      <trkpt lat="43.94492" lon="0.1992">
        <ele>86.014</ele>
        <time>2016-09-25T18:00:35Z</time>
      </trkpt>
      <trkpt lat="43.94457" lon="0.19941">
        <ele>86.841</ele>
        <time>2016-09-25T18:00:55Z</time>
      </trkpt>
      <trkpt lat="43.9438" lon="0.19926">
        <ele>89.03</ele>
        <time>2016-09-25T18:01:15Z</time>
      </trkpt>
      <trkpt lat="43.94289" lon="0.19888">
        <ele>91.449</ele>
        <time>2016-09-25T18:01:35Z</time>
      </trkpt>
      <trkpt lat="43.94216" lon="0.19868">
        <ele>89.595</ele>
        <time>2016-09-25T18:01:55Z</time>
      </trkpt>
      <trkpt lat="43.94091" lon="0.19776">
        <ele>86.566</ele>
        <time>2016-09-25T18:02:15Z</time>
      </trkpt>
      <trkpt lat="43.94029" lon="0.19667">
        <ele>86.949</ele>
        <time>2016-09-25T18:02:35Z</time>
      </trkpt>
      <trkpt lat="43.93831" lon="0.19619">
        <ele>86.328</ele>
        <time>2016-09-25T18:02:55Z</time>
      </trkpt>
      <trkpt lat="43.93681" lon="0.19568">
        <ele>85.358</ele>
        <time>2016-09-25T18:03:15Z</time>
      </trkpt>
      <trkpt lat="43.93378" lon="0.19602">
        <ele>86.152</ele>
        <time>2016-09-25T18:03:35Z</time>
      </trkpt>
      <trkpt lat="43.93351" lon="0.19626">
        <ele>89.417</ele>
        <time>2016-09-25T18:03:55Z</time>
      </trkpt>
      <trkpt lat="43.93233" lon="0.19611">
        <ele>87.008</ele>
        <time>2016-09-25T18:04:15Z</time>
      </trkpt>
      <trkpt lat="43.93122" lon="0.19598">
        <ele>91.681</ele>
        <time>2016-09-25T18:04:35Z</time>
      </trkpt>
      <trkpt lat="43.93076" lon="0.19536">
        <ele>85.328</ele>
        <time>2016-09-25T18:04:55Z</time>
      </trkpt>
      <trkpt lat="43.92881" lon="0.19564">
        <ele>92.957</ele>
        <time>2016-09-25T18:05:15Z</time>
      </trkpt>
      <trkpt lat="43.9272" lon="0.19538">
        <ele>102.686</ele>
        <time>2016-09-25T18:05:35Z</time>
      </trkpt>
      <trkpt lat="43.92675" lon="0.19598">
        <ele>107.972</ele>
        <time>2016-09-25T18:05:55Z</time>
      </trkpt>
      <trkpt lat="43.92411" lon="0.19714">
        <ele>99.463</ele>
        <time>2016-09-25T18:06:15Z</time>
      </trkpt>
      <trkpt lat="43.9232" lon="0.19782">
        <ele>96.076</ele>
        <time>2016-09-25T18:06:35Z</time>
      </trkpt>
      <trkpt lat="43.92255" lon="0.19879">
        <ele>95.495</ele>
        <time>2016-09-25T18:06:55Z</time>
      </trkpt>
      <trkpt lat="43.92161" lon="0.20115">
        <ele>98.851</ele>
        <time>2016-09-25T18:07:15Z</time>
      </trkpt>
      <trkpt lat="43.92065" lon="0.20248">
        <ele>91.501</ele>
        <time>2016-09-25T18:07:35Z</time>
      </trkpt>
      <trkpt lat="43.92083" lon="0.20051">
        <ele>87.011</ele>
        <time>2016-09-25T18:07:55Z</time>
      </trkpt>
      <trkpt lat="43.9212" lon="0.19553">
        <ele>90.408</ele>
        <time>2016-09-25T18:08:15Z</time>
      </trkpt>
      <trkpt lat="43.92006" lon="0.19424">
        <ele>104.061</ele>
        <time>2016-09-25T18:08:35Z</time>
      </trkpt>
      <trkpt lat="43.91974" lon="0.19351">
        <ele>106.468</ele>
        <time>2016-09-25T18:08:55Z</time>
      </trkpt>
      <trkpt lat="43.9185" lon="0.1936">
        <ele>108.967</ele>
        <time>2016-09-25T18:09:15Z</time>
      </trkpt>
      <trkpt lat="43.91821" lon="0.1921">
        <ele>115.216</ele>
        <time>2016-09-25T18:09:35Z</time>
      </trkpt>
      <trkpt lat="43.91818" lon="0.1907">
        <ele>119.032</ele>
        <time>2016-09-25T18:09:55Z</time>
      </trkpt>
      <trkpt lat="43.91822" lon="0.18993">
        <ele>121.153</ele>
        <time>2016-09-25T18:10:15Z</time>
      </trkpt>
      <trkpt lat="43.91787" lon="0.18733">
        <ele>124.076</ele>
        <time>2016-09-25T18:10:35Z</time>
      </trkpt>
      <trkpt lat="43.91814" lon="0.18547">
        <ele>129.365</ele>
        <time>2016-09-25T18:10:55Z</time>
      </trkpt>
      <trkpt lat="43.91638" lon="0.183">
        <ele>137.559</ele>
        <time>2016-09-25T18:11:15Z</time>
      </trkpt>
      <trkpt lat="43.91538" lon="0.18235">
        <ele>143.503</ele>
        <time>2016-09-25T18:11:35Z</time>
      </trkpt>
      <trkpt lat="43.91507" lon="0.18173">
        <ele>140.523</ele>
        <time>2016-09-25T18:11:55Z</time>
      </trkpt>
      <trkpt lat="43.91433" lon="0.17986">
        <ele>140.008</ele>
        <time>2016-09-25T18:12:15Z</time>
      </trkpt>
      <trkpt lat="43.91205" lon="0.17718">
        <ele>146.381</ele>
        <time>2016-09-25T18:12:35Z</time>
      </trkpt>
      <trkpt lat="43.91184" lon="0.1763">
        <ele>145.068</ele>
        <time>2016-09-25T18:12:55Z</time>
      </trkpt>
      <trkpt lat="43.91188" lon="0.17465">
        <ele>145.077</ele>
        <time>2016-09-25T18:13:15Z</time>
      </trkpt>
      <trkpt lat="43.91184" lon="0.1725">
        <ele>143.456</ele>
        <time>2016-09-25T18:13:35Z</time>
      </trkpt>
      <trkpt lat="43.91117" lon="0.16989">
        <ele>152.572</ele>
        <time>2016-09-25T18:13:55Z</time>
      </trkpt>
      <trkpt lat="43.91101" lon="0.16878">
        <ele>154.073</ele>
        <time>2021-01-03T14:07:00Z</time>
      </trkpt>
      <trkpt lat="43.90932" lon="0.16564">
        <ele>156.466</ele>
        <time>2021-01-03T14:07:20Z</time>
      </trkpt>
      <trkpt lat="43.91103" lon="0.1657">
        <ele>159.995</ele>
        <time>2016-09-25T18:15:15Z</time>
      </trkpt>
      <trkpt lat="43.91113" lon="0.16388">
        <ele>157.041</ele>
        <time>2016-09-25T18:15:35Z</time>
      </trkpt>
      <trkpt lat="43.9114" lon="0.16315">
        <ele>155.481</ele>
        <time>2016-09-25T18:15:55Z</time>
      </trkpt>
      <trkpt lat="43.91128" lon="0.16268">
        <ele>153.709</ele>
        <time>2016-09-25T18:16:15Z</time>
      </trkpt>
      <trkpt lat="43.91142" lon="0.16068">
        <ele>138.508</ele>
        <time>2016-09-25T18:16:35Z</time>
      </trkpt>
      <trkpt lat="43.91105" lon="0.15916">
        <ele>136.05</ele>
        <time>2016-09-25T18:16:55Z</time>
      </trkpt>
      <trkpt lat="43.91127" lon="0.1569">
        <ele>131.027</ele>
        <time>2016-09-25T18:17:15Z</time>
      </trkpt>
      <trkpt lat="43.91035" lon="0.1566">
        <ele>130.756</ele>
        <time>2016-09-25T18:17:35Z</time>
      </trkpt>
      <trkpt lat="43.90972" lon="0.15622">
        <ele>129.455</ele>
        <time>2016-09-25T18:17:55Z</time>
      </trkpt>
      <trkpt lat="43.90941" lon="0.15622">
        <ele>129.051</ele>
        <time>2016-09-25T18:18:15Z</time>
      </trkpt>
      <trkpt lat="43.90839" lon="0.15553">
        <ele>129.162</ele>
        <time>2016-09-25T18:18:35Z</time>
      </trkpt>
      <trkpt lat="43.90799" lon="0.1551">
        <ele>128.915</ele>
        <time>2016-09-25T18:18:55Z</time>
      </trkpt>
      <trkpt lat="43.90562" lon="0.15439">
        <ele>145.934</ele>
        <time>2016-09-25T18:19:15Z</time>
      </trkpt>
      <trkpt lat="43.90505" lon="0.15409">
        <ele>151.095</ele>
        <time>2016-09-25T18:19:35Z</time>
      </trkpt>
      <trkpt lat="43.90487" lon="0.1542">
        <ele>152.949</ele>
        <time>2021-01-03T14:12:20Z</time>
      </trkpt>
      <trkpt lat="43.90456" lon="0.15414">
        <ele>154.023</ele>
        <time>2021-01-03T14:12:40Z</time>
      </trkpt>
      <trkpt lat="43.90442" lon="0.15427">
        <ele>155.508</ele>
        <time>2021-01-03T14:13:00Z</time>
      </trkpt>
      <trkpt lat="43.90439" lon="0.15364">
        <ele>149.035</ele>
        <time>2016-09-25T18:20:15Z</time>
      </trkpt>
      <trkpt lat="43.90464" lon="0.15347">
        <ele>147.072</ele>
        <time>2021-01-03T14:13:40Z</time>
      </trkpt>
      <trkpt lat="43.90446" lon="0.15176">
        <ele>123.541</ele>
        <time>2016-09-25T18:20:55Z</time>
      </trkpt>
      <trkpt lat="43.90419" lon="0.15158">
        <ele>119.86</ele>
        <time>2016-09-25T18:21:15Z</time>
      </trkpt>
      <trkpt lat="43.90398" lon="0.1513">
        <ele>118.266</ele>
        <time>2016-09-25T18:21:35Z</time>
      </trkpt>
      <trkpt lat="43.90293" lon="0.151">
        <ele>116.847</ele>
        <time>2016-09-25T18:21:55Z</time>
      </trkpt>
      <trkpt lat="43.90187" lon="0.15034">
        <ele>115.25</ele>
        <time>2016-09-25T18:22:15Z</time>
      </trkpt>
      <trkpt lat="43.90092" lon="0.14924">
        <ele>121.739</ele>
        <time>2016-09-25T18:22:35Z</time>
      </trkpt>
      <trkpt lat="43.90024" lon="0.14787">
        <ele>123.576</ele>
        <time>2016-09-25T18:22:55Z</time>
      </trkpt>
      <trkpt lat="43.89986" lon="0.14549">
        <ele>123.39</ele>
        <time>2016-09-25T18:23:15Z</time>
      </trkpt>
      <trkpt lat="43.8991" lon="0.13785">
        <ele>123.619</ele>
        <time>2016-09-25T18:23:35Z</time>
      </trkpt>
      <trkpt lat="43.89888" lon="0.13395">
        <ele>125.008</ele>
        <time>2016-09-25T18:23:55Z</time>
      </trkpt>
      <trkpt lat="43.89876" lon="0.13289">
        <ele>127.123</ele>
        <time>2016-09-25T18:24:15Z</time>
      </trkpt>
      <trkpt lat="43.89837" lon="0.13178">
        <ele>125.61</ele>
        <time>2016-09-25T18:24:35Z</time>
      </trkpt>
      <trkpt lat="43.89809" lon="0.13154">
        <ele>126.519</ele>
        <time>2016-09-25T18:24:55Z</time>
      </trkpt>
      <trkpt lat="43.89769" lon="0.13075">
        <ele>128.778</ele>
        <time>2016-09-25T18:25:15Z</time>
      </trkpt>
      <trkpt lat="43.89738" lon="0.13058">
        <ele>127.594</ele>
        <time>2016-09-25T18:25:35Z</time>
      </trkpt>
      <trkpt lat="43.89604" lon="0.12873">
        <ele>131.695</ele>
        <time>2016-09-25T18:25:55Z</time>
      </trkpt>
      <trkpt lat="43.89188" lon="0.12362">
        <ele>136.648</ele>
        <time>2016-09-25T18:26:15Z</time>
      </trkpt>
      <trkpt lat="43.88957" lon="0.11995">
        <ele>136.257</ele>
        <time>2016-09-25T18:26:35Z</time>
      </trkpt>
      <trkpt lat="43.88758" lon="0.11551">
        <ele>143.675</ele>
        <time>2016-09-25T18:26:55Z</time>
      </trkpt>
      <trkpt lat="43.88673" lon="0.113">
        <ele>145.928</ele>
        <time>2016-09-25T18:27:15Z</time>
      </trkpt>
      <trkpt lat="43.88628" lon="0.11045">
        <ele>150.62</ele>
        <time>2016-09-25T18:27:35Z</time>
      </trkpt>
      <trkpt lat="43.88565" lon="0.1074">
        <ele>156.608</ele>
        <time>2016-09-25T18:27:55Z</time>
      </trkpt>
      <trkpt lat="43.88464" lon="0.10596">
        <ele>147.483</ele>
        <time>2016-09-25T18:28:15Z</time>
      </trkpt>
      <trkpt lat="43.8837" lon="0.10551">
        <ele>152.07</ele>
        <time>2016-09-25T18:28:35Z</time>
      </trkpt>
      <trkpt lat="43.88289" lon="0.10556">
        <ele>143.469</ele>
        <time>2016-09-25T18:28:55Z</time>
      </trkpt>
      <trkpt lat="43.87804" lon="0.10687">
        <ele>141.488</ele>
        <time>2016-09-25T18:29:15Z</time>
      </trkpt>
      <trkpt lat="43.8762" lon="0.10706">
        <ele>141.054</ele>
        <time>2016-09-25T18:29:35Z</time>
      </trkpt>
      <trkpt lat="43.87383" lon="0.1083">
        <ele>135.765</ele>
        <time>2016-09-25T18:29:55Z</time>
      </trkpt>
      <trkpt lat="43.87278" lon="0.10852">
        <ele>131.718</ele>
        <time>2016-09-25T18:30:15Z</time>
      </trkpt>
      <trkpt lat="43.87173" lon="0.10828">
        <ele>129.987</ele>
        <time>2016-09-25T18:30:35Z</time>
      </trkpt>
      <trkpt lat="43.87069" lon="0.10781">
        <ele>130.041</ele>
        <time>2016-09-25T18:30:55Z</time>
      </trkpt>
      <trkpt lat="43.8669" lon="0.10603">
        <ele>137.981</ele>
        <time>2016-09-25T18:31:15Z</time>
      </trkpt>
      <trkpt lat="43.86599" lon="0.10581">
        <ele>135.609</ele>
        <time>2016-09-25T18:31:35Z</time>
      </trkpt>
      <trkpt lat="43.8651" lon="0.1059">
        <ele>136.008</ele>
        <time>2016-09-25T18:31:55Z</time>
      </trkpt>
      <trkpt lat="43.86428" lon="0.10624">
        <ele>138.36</ele>
        <time>2016-09-25T18:32:15Z</time>
      </trkpt>
      <trkpt lat="43.86312" lon="0.10753">
        <ele>139.787</ele>
        <time>2016-09-25T18:32:35Z</time>
      </trkpt>
      <trkpt lat="43.86227" lon="0.10689">
        <ele>143.286</ele>
        <time>2016-09-25T18:32:55Z</time>
      </trkpt>
      <trkpt lat="43.86165" lon="0.10581">
        <ele>147.135</ele>
        <time>2016-09-25T18:33:15Z</time>
      </trkpt>
      <trkpt lat="43.8607" lon="0.10036">
        <ele>157.261</ele>
        <time>2016-09-25T18:33:35Z</time>
      </trkpt>
      <trkpt lat="43.85842" lon="0.10049">
        <ele>160.012</ele>
        <time>2016-09-25T18:33:55Z</time>
      </trkpt>
      <trkpt lat="43.85729" lon="0.09996">
        <ele>160.045</ele>
        <time>2016-09-25T18:34:15Z</time>
      </trkpt>
      <trkpt lat="43.85513" lon="0.09843">
        <ele>157.474</ele>
        <time>2016-09-25T18:34:35Z</time>
      </trkpt>
      <trkpt lat="43.8557" lon="0.09755">
        <ele>154.669</ele>
        <time>2016-09-25T18:34:55Z</time>
      </trkpt>
      <trkpt lat="43.85642" lon="0.09652">
        <ele>150.004</ele>
        <time>2016-09-25T18:35:15Z</time>
      </trkpt>
      <trkpt lat="43.85559" lon="0.09509">
        <ele>150.024</ele>
        <time>2016-09-25T18:35:35Z</time>
      </trkpt>
      <trkpt lat="43.85509" lon="0.0941">
        <ele>152.708</ele>
        <time>2016-09-25T18:35:55Z</time>
      </trkpt>
      <trkpt lat="43.85423" lon="0.0932">
        <ele>156.732</ele>
        <time>2016-09-25T18:36:15Z</time>
      </trkpt>
      <trkpt lat="43.85331" lon="0.08974">
        <ele>164.929</ele>
        <time>2016-09-25T18:36:35Z</time>
      </trkpt>
      <trkpt lat="43.8527" lon="0.08893">
        <ele>165.068</ele>
        <time>2016-09-25T18:36:55Z</time>
      </trkpt>
      <trkpt lat="43.85144" lon="0.08693">
        <ele>172.957</ele>
        <time>2016-09-25T18:37:15Z</time>
      </trkpt>
      <trkpt lat="43.85016" lon="0.08519">
        <ele>177.443</ele>
        <time>2016-09-25T18:37:35Z</time>
      </trkpt>
      <trkpt lat="43.85022" lon="0.0844">
        <ele>173.874</ele>
        <time>2016-09-25T18:37:55Z</time>
      </trkpt>
      <trkpt lat="43.84949" lon="0.08386">
        <ele>177.767</ele>
        <time>2016-09-25T18:38:15Z</time>
      </trkpt>
      <trkpt lat="43.8496" lon="0.0835">
        <ele>176.146</ele>
        <time>2016-09-25T18:38:35Z</time>
      </trkpt>
      <trkpt lat="43.84925" lon="0.08187">
        <ele>165.981</ele>
        <time>2016-09-25T18:38:55Z</time>
      </trkpt>
      <trkpt lat="43.84931" lon="0.08094">
        <ele>164.061</ele>
        <time>2016-09-25T18:39:15Z</time>
      </trkpt>
      <trkpt lat="43.84955" lon="0.07981">
        <ele>162.017</ele>
        <time>2016-09-25T18:39:35Z</time>
      </trkpt>
      <trkpt lat="43.84904" lon="0.07908">
        <ele>169.408</ele>
        <time>2016-09-25T18:39:55Z</time>
      </trkpt>
      <trkpt lat="43.8476" lon="0.07783">
        <ele>172.134</ele>
        <time>2016-09-25T18:40:15Z</time>
      </trkpt>
      <trkpt lat="43.84725" lon="0.07698">
        <ele>168.291</ele>
        <time>2016-09-25T18:40:35Z</time>
      </trkpt>
      <trkpt lat="43.84641" lon="0.07612">
        <ele>163.25</ele>
        <time>2016-09-25T18:40:55Z</time>
      </trkpt>
      <trkpt lat="43.84507" lon="0.075">
        <ele>161.249</ele>
        <time>2016-09-25T18:41:15Z</time>
      </trkpt>
      <trkpt lat="43.84389" lon="0.07421">
        <ele>158.045</ele>
        <time>2016-09-25T18:41:35Z</time>
      </trkpt>
      <trkpt lat="43.84372" lon="0.07365">
        <ele>156.976</ele>
        <time>2016-09-25T18:41:55Z</time>
      </trkpt>
      <trkpt lat="43.84323" lon="0.07294">
        <ele>149.449</ele>
        <time>2016-09-25T18:42:15Z</time>
      </trkpt>
      <trkpt lat="43.84245" lon="0.07217">
        <ele>138.558</ele>
        <time>2016-09-25T18:42:35Z</time>
      </trkpt>
      <trkpt lat="43.84276" lon="0.07099">
        <ele>135.519</ele>
        <time>2016-09-25T18:42:55Z</time>
      </trkpt>
      <trkpt lat="43.84148" lon="0.07052">
        <ele>133.609</ele>
        <time>2016-09-25T18:43:15Z</time>
      </trkpt>
      <trkpt lat="43.84087" lon="0.06942">
        <ele>130.319</ele>
        <time>2016-09-25T18:43:35Z</time>
      </trkpt>
      <trkpt lat="43.84001" lon="0.06816">
        <ele>127.008</ele>
        <time>2016-09-25T18:43:55Z</time>
      </trkpt>
      <trkpt lat="43.83991" lon="0.06758">
        <ele>127.037</ele>
        <time>2016-09-25T18:44:15Z</time>
      </trkpt>
      <trkpt lat="43.84027" lon="0.067">
        <ele>127.044</ele>
        <time>2016-09-25T18:44:35Z</time>
      </trkpt>
      <trkpt lat="43.84021" lon="0.06603">
        <ele>127.093</ele>
        <time>2016-09-25T18:44:55Z</time>
      </trkpt>
      <trkpt lat="43.839" lon="0.06532">
        <ele>135.392</ele>
        <time>2016-09-25T18:45:15Z</time>
      </trkpt>
      <trkpt lat="43.8385" lon="0.06519">
        <ele>141.198</ele>
        <time>2016-09-25T18:45:35Z</time>
      </trkpt>
      <trkpt lat="43.83843" lon="0.06483">
        <ele>142.339</ele>
        <time>2016-09-25T18:45:55Z</time>
      </trkpt>
      <trkpt lat="43.83816" lon="0.06466">
        <ele>145.542</ele>
        <time>2016-09-25T18:46:15Z</time>
      </trkpt>
      <trkpt lat="43.83764" lon="0.06389">
        <ele>148.521</ele>
        <time>2016-09-25T18:46:35Z</time>
      </trkpt>
      <trkpt lat="43.83708" lon="0.06374">
        <ele>152.587</ele>
        <time>2016-09-25T18:46:55Z</time>
      </trkpt>
      <trkpt lat="43.83702" lon="0.06344">
        <ele>151.542</ele>
        <time>2016-09-25T18:47:15Z</time>
      </trkpt>
      <trkpt lat="43.83626" lon="0.06232">
        <ele>152.326</ele>
        <time>2016-09-25T18:47:35Z</time>
      </trkpt>
      <trkpt lat="43.83539" lon="0.06165">
        <ele>156.208</ele>
        <time>2016-09-25T18:47:55Z</time>
      </trkpt>
      <trkpt lat="43.83433" lon="0.06035">
        <ele>163.214</ele>
        <time>2016-09-25T18:48:15Z</time>
      </trkpt>
      <trkpt lat="43.8336" lon="0.05917">
        <ele>155.011</ele>
        <time>2016-09-25T18:48:35Z</time>
      </trkpt>
      <trkpt lat="43.83282" lon="0.05854">
        <ele>155.72</ele>
        <time>2016-09-25T18:48:55Z</time>
      </trkpt>
      <trkpt lat="43.8321" lon="0.05764">
        <ele>163.429</ele>
        <time>2016-09-25T18:49:15Z</time>
      </trkpt>
      <trkpt lat="43.83208" lon="0.05736">
        <ele>164.895</ele>
        <time>2016-09-25T18:49:35Z</time>
      </trkpt>
      <trkpt lat="43.83148" lon="0.05663">
        <ele>170.026</ele>
        <time>2016-09-25T18:49:55Z</time>
      </trkpt>
      <trkpt lat="43.8307" lon="0.05775">
        <ele>175.089</ele>
        <time>2016-09-25T18:50:15Z</time>
      </trkpt>
      <trkpt lat="43.83021" lon="0.05429">
        <ele>169.118</ele>
        <time>2016-09-25T18:50:35Z</time>
      </trkpt>
      <trkpt lat="43.83049" lon="0.05292">
        <ele>164.343</ele>
        <time>2016-09-25T18:50:55Z</time>
      </trkpt>
      <trkpt lat="43.83118" lon="0.05146">
        <ele>160.264</ele>
        <time>2016-09-25T18:51:15Z</time>
      </trkpt>
      <trkpt lat="43.83227" lon="0.04964">
        <ele>156.91</ele>
        <time>2016-09-25T18:51:35Z</time>
      </trkpt>
      <trkpt lat="43.83343" lon="0.04816">
        <ele>157.008</ele>
        <time>2016-09-25T18:51:55Z</time>
      </trkpt>
      <trkpt lat="43.83292" lon="0.04747">
        <ele>154.95</ele>
        <time>2016-09-25T18:52:15Z</time>
      </trkpt>
      <trkpt lat="43.83281" lon="0.04719">
        <ele>153.097</ele>
        <time>2016-09-25T18:52:35Z</time>
      </trkpt>
      <trkpt lat="43.83216" lon="0.04614">
        <ele>142.346</ele>
        <time>2016-09-25T18:52:55Z</time>
      </trkpt>
      <trkpt lat="43.83188" lon="0.04543">
        <ele>135.335</ele>
        <time>2016-09-25T18:53:15Z</time>
      </trkpt>
      <trkpt lat="43.83151" lon="0.04496">
        <ele>134.041</ele>
        <time>2016-09-25T18:53:35Z</time>
      </trkpt>
      <trkpt lat="43.83104" lon="0.04472">
        <ele>135.062</ele>
        <time>2016-09-25T18:53:55Z</time>
      </trkpt>
      <trkpt lat="43.83069" lon="0.04496">
        <ele>137.055</ele>
        <time>2016-09-25T18:54:15Z</time>
      </trkpt>
      <trkpt lat="43.83004" lon="0.04502">
        <ele>141.434</ele>
        <time>2016-09-25T18:54:35Z</time>
      </trkpt>
      <trkpt lat="43.82747" lon="0.04374">
        <ele>156.053</ele>
        <time>2016-09-25T18:54:55Z</time>
      </trkpt>
      <trkpt lat="43.82628" lon="0.04354">
        <ele>156.304</ele>
        <time>2016-09-25T18:55:15Z</time>
      </trkpt>
      <trkpt lat="43.82573" lon="0.04359">
        <ele>157.114</ele>
        <time>2016-09-25T18:55:35Z</time>
      </trkpt>
      <trkpt lat="43.82519" lon="0.04348">
        <ele>159.108</ele>
        <time>2016-09-25T18:55:55Z</time>
      </trkpt>
      <trkpt lat="43.82386" lon="0.0438">
        <ele>164.431</ele>
        <time>2016-09-25T18:56:15Z</time>
      </trkpt>
      <trkpt lat="43.82309" lon="0.04346">
        <ele>161.318</ele>
        <time>2016-09-25T18:56:35Z</time>
      </trkpt>
      <trkpt lat="43.82207" lon="0.04264">
        <ele>149.717</ele>
        <time>2016-09-25T18:56:55Z</time>
      </trkpt>
      <trkpt lat="43.82111" lon="0.04138">
        <ele>136.996</ele>
        <time>2016-09-25T18:57:15Z</time>
      </trkpt>
      <trkpt lat="43.82005" lon="0.04011">
        <ele>130.452</ele>
        <time>2016-09-25T18:57:35Z</time>
      </trkpt>
      <trkpt lat="43.81962" lon="0.03902">
        <ele>128.653</ele>
        <time>2016-09-25T18:57:55Z</time>
      </trkpt>
      <trkpt lat="43.81889" lon="0.03807">
        <ele>126.086</ele>
        <time>2016-09-25T18:58:15Z</time>
      </trkpt>
      <trkpt lat="43.81785" lon="0.03548">
        <ele>119.225</ele>
        <time>2016-09-25T18:58:35Z</time>
      </trkpt>
      <trkpt lat="43.81665" lon="0.03554">
        <ele>119.017</ele>
        <time>2016-09-25T18:58:55Z</time>
      </trkpt>
      <trkpt lat="43.81516" lon="0.03627">
        <ele>136.887</ele>
        <time>2016-09-25T18:59:15Z</time>
      </trkpt>
      <trkpt lat="43.81372" lon="0.03601">
        <ele>142.415</ele>
        <time>2016-09-25T18:59:35Z</time>
      </trkpt>
      <trkpt lat="43.80993" lon="0.03676">
        <ele>149.808</ele>
        <time>2016-09-25T18:59:55Z</time>
      </trkpt>
      <trkpt lat="43.80756" lon="0.03792">
        <ele>153.297</ele>
        <time>2016-09-25T19:00:15Z</time>
      </trkpt>
      <trkpt lat="43.80599" lon="0.03837">
        <ele>139.254</ele>
        <time>2016-09-25T19:00:35Z</time>
      </trkpt>
      <trkpt lat="43.80503" lon="0.03797">
        <ele>134.433</ele>
        <time>2016-09-25T19:00:55Z</time>
      </trkpt>
      <trkpt lat="43.80434" lon="0.0379">
        <ele>132.272</ele>
        <time>2016-09-25T19:01:15Z</time>
      </trkpt>
      <trkpt lat="43.80362" lon="0.03842">
        <ele>134.088</ele>
        <time>2016-09-25T19:01:35Z</time>
      </trkpt>
      <trkpt lat="43.80254" lon="0.04011">
        <ele>130.159</ele>
        <time>2016-09-25T19:01:55Z</time>
      </trkpt>
      <trkpt lat="43.80127" lon="0.04127">
        <ele>132.832</ele>
        <time>2021-01-03T14:55:20Z</time>
      </trkpt>
      <trkpt lat="43.80062" lon="0.04144">
        <ele>133.121</ele>
        <time>2021-01-03T14:55:40Z</time>
      </trkpt>
      <trkpt lat="43.80019" lon="0.0417">
        <ele>134.328</ele>
        <time>2021-01-03T14:56:00Z</time>
      </trkpt>
      <trkpt lat="43.79998" lon="0.04098">
        <ele>132.689</ele>
        <time>2021-01-03T14:56:20Z</time>
      </trkpt>
      <trkpt lat="43.79956" lon="0.04122">
        <ele>135.617</ele>
        <time>2021-01-03T14:56:40Z</time>
      </trkpt>
      <trkpt lat="43.79936" lon="0.04064">
        <ele>132.908</ele>
        <time>2021-01-03T14:57:00Z</time>
      </trkpt>
      <trkpt lat="43.79897" lon="0.0404">
        <ele>131.058</ele>
        <time>2021-01-03T14:57:20Z</time>
      </trkpt>
      <trkpt lat="43.79806" lon="0.03931">
        <ele>123.185</ele>
        <time>2021-01-03T14:57:40Z</time>
      </trkpt>
      <trkpt lat="43.79766" lon="0.03829">
        <ele>119.064</ele>
        <time>2021-01-03T14:58:00Z</time>
      </trkpt>
      <trkpt lat="43.79762" lon="0.03804">
        <ele>119.083</ele>
        <time>2021-01-03T14:58:20Z</time>
      </trkpt>
      <trkpt lat="43.79737" lon="0.03754">
        <ele>118.139</ele>
        <time>2021-01-03T14:58:40Z</time>
      </trkpt>
      <trkpt lat="43.79556" lon="0.03292">
        <ele>120.03</ele>
        <time>2016-09-25T19:03:15Z</time>
      </trkpt>
      <trkpt lat="43.79483" lon="0.0317">
        <ele>120.063</ele>
        <time>2016-09-25T19:03:35Z</time>
      </trkpt>
      <trkpt lat="43.79407" lon="0.03258">
        <ele>119.862</ele>
        <time>2016-09-25T19:03:55Z</time>
      </trkpt>
      <trkpt lat="43.79328" lon="0.03194">
        <ele>119.824</ele>
        <time>2016-09-25T19:04:15Z</time>
      </trkpt>
      <trkpt lat="43.79106" lon="0.03082">
        <ele>118.904</ele>
        <time>2016-09-25T19:04:35Z</time>
      </trkpt>
      <trkpt lat="43.78979" lon="0.03116">
        <ele>117.214</ele>
        <time>2016-09-25T19:04:55Z</time>
      </trkpt>
      <trkpt lat="43.78922" lon="0.03155">
        <ele>118.608</ele>
        <time>2016-09-25T19:05:15Z</time>
      </trkpt>
      <trkpt lat="43.78821" lon="0.03316">
        <ele>119.358</ele>
        <time>2016-09-25T19:05:35Z</time>
      </trkpt>
      <trkpt lat="43.78626" lon="0.03348">
        <ele>125.925</ele>
        <time>2016-09-25T19:05:55Z</time>
      </trkpt>
      <trkpt lat="43.78584" lon="0.03307">
        <ele>129.924</ele>
        <time>2016-09-25T19:06:15Z</time>
      </trkpt>
      <trkpt lat="43.78383" lon="0.03161">
        <ele>149.243</ele>
        <time>2016-09-25T19:06:35Z</time>
      </trkpt>
      <trkpt lat="43.78231" lon="0.02994">
        <ele>150.439</ele>
        <time>2016-09-25T19:06:55Z</time>
      </trkpt>
      <trkpt lat="43.78244" lon="0.029">
        <ele>150.01</ele>
        <time>2016-09-25T19:07:15Z</time>
      </trkpt>
      <trkpt lat="43.78257" lon="0.02771">
        <ele>148.233</ele>
        <time>2016-09-25T19:07:35Z</time>
      </trkpt>
      <trkpt lat="43.78239" lon="0.02752">
        <ele>148.042</ele>
        <time>2016-09-25T19:07:55Z</time>
      </trkpt>
      <trkpt lat="43.78259" lon="0.0261">
        <ele>145.791</ele>
        <time>2016-09-25T19:08:15Z</time>
      </trkpt>
      <trkpt lat="43.78163" lon="0.02588">
        <ele>142.081</ele>
        <time>2016-09-25T19:08:35Z</time>
      </trkpt>
      <trkpt lat="43.78175" lon="0.02423">
        <ele>141.319</ele>
        <time>2016-09-25T19:08:55Z</time>
      </trkpt>
      <trkpt lat="43.7803" lon="0.02372">
        <ele>134.708</ele>
        <time>2016-09-25T19:09:15Z</time>
      </trkpt>
      <trkpt lat="43.78037" lon="0.02284">
        <ele>136.935</ele>
        <time>2016-09-25T19:09:35Z</time>
      </trkpt>
      <trkpt lat="43.78223" lon="0.01552">
        <ele>130.192</ele>
        <time>2016-09-25T19:09:55Z</time>
      </trkpt>
      <trkpt lat="43.78216" lon="0.015">
        <ele>129.551</ele>
        <time>2021-01-03T15:06:00Z</time>
      </trkpt>
      <trkpt lat="43.78151" lon="0.01341">
        <ele>119.91</ele>
        <time>2021-01-03T15:06:20Z</time>
      </trkpt>
      <trkpt lat="43.7814" lon="0.01274">
        <ele>116.016</ele>
        <time>2021-01-03T15:06:40Z</time>
      </trkpt>
      <trkpt lat="43.78259" lon="0.01268">
        <ele>120.527</ele>
        <time>2021-01-03T15:07:00Z</time>
      </trkpt>
      <trkpt lat="43.78292" lon="0.01095">
        <ele>128.77</ele>
        <time>2016-09-25T19:11:15Z</time>
      </trkpt>
      <trkpt lat="43.78248" lon="0.00994">
        <ele>136.129</ele>
        <time>2016-09-25T19:11:35Z</time>
      </trkpt>
      <trkpt lat="43.78036" lon="0.00921">
        <ele>130.089</ele>
        <time>2016-09-25T19:11:55Z</time>
      </trkpt>
      <trkpt lat="43.77932" lon="0.00906">
        <ele>130.006</ele>
        <time>2016-09-25T19:12:15Z</time>
      </trkpt>
      <trkpt lat="43.77782" lon="0.00801">
        <ele>125.326</ele>
        <time>2016-09-25T19:12:35Z</time>
      </trkpt>
      <trkpt lat="43.77701" lon="0.00792">
        <ele>115.908</ele>
        <time>2016-09-25T19:12:55Z</time>
      </trkpt>
      <trkpt lat="43.77508" lon="0.00653">
        <ele>99.094</ele>
        <time>2016-09-25T19:13:15Z</time>
      </trkpt>
      <trkpt lat="43.77528" lon="0.00589">
        <ele>99.041</ele>
        <time>2016-09-25T19:13:35Z</time>
      </trkpt>
      <trkpt lat="43.77531" lon="0.00486">
        <ele>99.04</ele>
        <time>2016-09-25T19:13:55Z</time>
      </trkpt>
      <trkpt lat="43.77463" lon="0.00316">
        <ele>99.049</ele>
        <time>2016-09-25T19:14:15Z</time>
      </trkpt>
      <trkpt lat="43.77458" lon="0.00252">
        <ele>99.085</ele>
        <time>2016-09-25T19:14:35Z</time>
      </trkpt>
      <trkpt lat="43.77393" lon="0.00202">
        <ele>107.066</ele>
        <time>2016-09-25T19:14:55Z</time>
      </trkpt>
      <trkpt lat="43.77345" lon="0.00258">
        <ele>109.359</ele>
        <time>2016-09-25T19:15:15Z</time>
      </trkpt>
      <trkpt lat="43.77289" lon="0.00243">
        <ele>115.988</ele>
        <time>2016-09-25T19:15:35Z</time>
      </trkpt>
      <trkpt lat="43.77227" lon="0.00179">
        <ele>126.515</ele>
        <time>2016-09-25T19:15:55Z</time>
      </trkpt>
      <trkpt lat="43.77212" lon="0.00138">
        <ele>130.265</ele>
        <time>2016-09-25T19:16:15Z</time>
      </trkpt>
      <trkpt lat="43.77139" lon="0.00046">
        <ele>139.411</ele>
        <time>2016-09-25T19:16:35Z</time>
      </trkpt>
      <trkpt lat="43.77033" lon="0.00101">
        <ele>134.908</ele>
        <time>2016-09-25T19:16:55Z</time>
      </trkpt>
      <trkpt lat="43.76984" lon="-0.00045">
        <ele>134.167</ele>
        <time>2016-09-25T19:17:15Z</time>
      </trkpt>
      <trkpt lat="43.76883" lon="-0.001">
        <ele>135.624</ele>
        <time>2016-09-25T19:17:35Z</time>
      </trkpt>
      <trkpt lat="43.76852" lon="-0.00167">
        <ele>127.433</ele>
        <time>2016-09-25T19:17:55Z</time>
      </trkpt>
      <trkpt lat="43.76827" lon="-0.00165">
        <ele>123.392</ele>
        <time>2016-09-25T19:18:15Z</time>
      </trkpt>
      <trkpt lat="43.76707" lon="-0.00278">
        <ele>104.948</ele>
        <time>2016-09-25T19:18:35Z</time>
      </trkpt>
      <trkpt lat="43.76672" lon="-0.00411">
        <ele>101.859</ele>
        <time>2016-09-25T19:18:55Z</time>
      </trkpt>
      <trkpt lat="43.76617" lon="-0.00499">
        <ele>98.082</ele>
        <time>2016-09-25T19:19:15Z</time>
      </trkpt>
      <trkpt lat="43.76634" lon="-0.00632">
        <ele>99.361</ele>
        <time>2016-09-25T19:19:35Z</time>
      </trkpt>
      <trkpt lat="43.7661" lon="-0.00995">
        <ele>115.038</ele>
        <time>2016-09-25T19:19:55Z</time>
      </trkpt>
      <trkpt lat="43.76575" lon="-0.01111">
        <ele>120.37</ele>
        <time>2016-09-25T19:20:15Z</time>
      </trkpt>
      <trkpt lat="43.76485" lon="-0.01745">
        <ele>134.617</ele>
        <time>2021-01-03T15:16:40Z</time>
      </trkpt>
      <trkpt lat="43.7635" lon="-0.01775">
        <ele>130.608</ele>
        <time>2021-01-03T15:17:00Z</time>
      </trkpt>
      <trkpt lat="43.76358" lon="-0.01887">
        <ele>120.219</ele>
        <time>2021-01-03T15:17:20Z</time>
      </trkpt>
      <trkpt lat="43.7631" lon="-0.0207">
        <ele>96.036</ele>
        <time>2021-01-03T15:17:40Z</time>
      </trkpt>
      <trkpt lat="43.76464" lon="-0.02126">
        <ele>97.625</ele>
        <time>2021-01-03T15:18:00Z</time>
      </trkpt>
      <trkpt lat="43.76486" lon="-0.02265">
        <ele>93.244</ele>
        <time>2016-09-25T19:21:15Z</time>
      </trkpt>
      <trkpt lat="43.76299" lon="-0.02847">
        <ele>95.04</ele>
        <time>2016-09-25T19:21:35Z</time>
      </trkpt>
      <trkpt lat="43.75783" lon="-0.03437">
        <ele>104.661</ele>
        <time>2016-09-25T19:21:55Z</time>
      </trkpt>
      <trkpt lat="43.7576" lon="-0.03473">
        <ele>105.074</ele>
        <time>2016-09-25T19:22:15Z</time>
      </trkpt>
      <trkpt lat="43.75733" lon="-0.03566">
        <ele>108.423</ele>
        <time>2016-09-25T19:22:35Z</time>
      </trkpt>
      <trkpt lat="43.75726" lon="-0.04624">
        <ele>145.086</ele>
        <time>2016-09-25T19:22:55Z</time>
      </trkpt>
      <trkpt lat="43.75626" lon="-0.04849">
        <ele>145.06</ele>
        <time>2016-09-25T19:23:15Z</time>
      </trkpt>
      <trkpt lat="43.75671" lon="-0.05128">
        <ele>142.726</ele>
        <time>2016-09-25T19:23:35Z</time>
      </trkpt>
      <trkpt lat="43.75636" lon="-0.05246">
        <ele>145.008</ele>
        <time>2016-09-25T19:23:55Z</time>
      </trkpt>
      <trkpt lat="43.7562" lon="-0.05381">
        <ele>145.014</ele>
        <time>2016-09-25T19:24:15Z</time>
      </trkpt>
      <trkpt lat="43.75698" lon="-0.05643">
        <ele>139.081</ele>
        <time>2016-09-25T19:24:35Z</time>
      </trkpt>
      <trkpt lat="43.75738" lon="-0.05937">
        <ele>131.02</ele>
        <time>2016-09-25T19:24:55Z</time>
      </trkpt>
      <trkpt lat="43.75738" lon="-0.05937">
        <ele>131.029</ele>
        <time>2016-09-25T19:25:15Z</time>
      </trkpt>
      <trkpt lat="43.75736" lon="-0.06261">
        <ele>107.895</ele>
        <time>2016-09-25T19:25:35Z</time>
      </trkpt>
      <trkpt lat="43.75749" lon="-0.06329">
        <ele>100.356</ele>
        <time>2016-09-25T19:25:55Z</time>
      </trkpt>
      <trkpt lat="43.75822" lon="-0.06342">
        <ele>100.459</ele>
        <time>2016-09-25T19:26:15Z</time>
      </trkpt>
      <trkpt lat="43.75941" lon="-0.06424">
        <ele>100.098</ele>
        <time>2016-09-25T19:26:35Z</time>
      </trkpt>
      <trkpt lat="43.75992" lon="-0.06357">
        <ele>100.853</ele>
        <time>2016-09-25T19:26:55Z</time>
      </trkpt>
      <trkpt lat="43.76025" lon="-0.06357">
        <ele>104.404</ele>
        <time>2016-09-25T19:27:15Z</time>
      </trkpt>
      <trkpt lat="43.75995" lon="-0.06531">
        <ele>100.014</ele>
        <time>2016-09-25T19:27:35Z</time>
      </trkpt>
      <trkpt lat="43.75946" lon="-0.066">
        <ele>100.008</ele>
        <time>2016-09-25T19:27:55Z</time>
      </trkpt>
      <trkpt lat="43.75921" lon="-0.06847">
        <ele>100.071</ele>
        <time>2016-09-25T19:28:15Z</time>
      </trkpt>
      <trkpt lat="43.75932" lon="-0.06887">
        <ele>100.958</ele>
        <time>2016-09-25T19:28:35Z</time>
      </trkpt>
      <trkpt lat="43.75884" lon="-0.06935">
        <ele>106.397</ele>
        <time>2016-09-25T19:28:55Z</time>
      </trkpt>
      <trkpt lat="43.75863" lon="-0.07136">
        <ele>122.786</ele>
        <time>2016-09-25T19:29:15Z</time>
      </trkpt>
      <trkpt lat="43.75772" lon="-0.07477">
        <ele>140.082</ele>
        <time>2016-09-25T19:29:35Z</time>
      </trkpt>
      <trkpt lat="43.75836" lon="-0.07578">
        <ele>140.013</ele>
        <time>2016-09-25T19:29:55Z</time>
      </trkpt>
      <trkpt lat="43.75828" lon="-0.07675">
        <ele>138.636</ele>
        <time>2016-09-25T19:30:15Z</time>
      </trkpt>
      <trkpt lat="43.75724" lon="-0.08068">
        <ele>102.115</ele>
        <time>2016-09-25T19:30:35Z</time>
      </trkpt>
      <trkpt lat="43.75726" lon="-0.08196">
        <ele>94.064</ele>
        <time>2016-09-25T19:30:55Z</time>
      </trkpt>
      <trkpt lat="43.75702" lon="-0.08316">
        <ele>92.906</ele>
        <time>2016-09-25T19:31:15Z</time>
      </trkpt>
      <trkpt lat="43.75606" lon="-0.08308">
        <ele>94.016</ele>
        <time>2016-09-25T19:31:35Z</time>
      </trkpt>
      <trkpt lat="43.75558" lon="-0.08265">
        <ele>94.008</ele>
        <time>2016-09-25T19:31:55Z</time>
      </trkpt>
      <trkpt lat="43.75492" lon="-0.08265">
        <ele>94.172</ele>
        <time>2016-09-25T19:32:15Z</time>
      </trkpt>
      <trkpt lat="43.75479" lon="-0.08286">
        <ele>94.029</ele>
        <time>2016-09-25T19:32:35Z</time>
      </trkpt>
      <trkpt lat="43.75071" lon="-0.0849">
        <ele>94.028</ele>
        <time>2016-09-25T19:32:55Z</time>
      </trkpt>
      <trkpt lat="43.75082" lon="-0.09437">
        <ele>109.737</ele>
        <time>2016-09-25T19:33:15Z</time>
      </trkpt>
      <trkpt lat="43.74717" lon="-0.09327">
        <ele>104.663</ele>
        <time>2016-09-25T19:33:35Z</time>
      </trkpt>
      <trkpt lat="43.74642" lon="-0.09364">
        <ele>101.464</ele>
        <time>2016-09-25T19:33:55Z</time>
      </trkpt>
      <trkpt lat="43.74589" lon="-0.09437">
        <ele>102.017</ele>
        <time>2016-09-25T19:34:15Z</time>
      </trkpt>
      <trkpt lat="43.74554" lon="-0.09331">
        <ele>100.166</ele>
        <time>2016-09-25T19:34:35Z</time>
      </trkpt>
      <trkpt lat="43.74557" lon="-0.09293">
        <ele>99.029</ele>
        <time>2016-09-25T19:34:55Z</time>
      </trkpt>
      <trkpt lat="43.74478" lon="-0.09181">
        <ele>98.1</ele>
        <time>2016-09-25T19:35:15Z</time>
      </trkpt>
      <trkpt lat="43.74459" lon="-0.09297">
        <ele>100.42</ele>
        <time>2016-09-25T19:35:35Z</time>
      </trkpt>
      <trkpt lat="43.74337" lon="-0.09143">
        <ele>100.108</ele>
        <time>2016-09-25T19:35:55Z</time>
      </trkpt>
      <trkpt lat="43.74313" lon="-0.09213">
        <ele>102.228</ele>
        <time>2016-09-25T19:36:15Z</time>
      </trkpt>
      <trkpt lat="43.74284" lon="-0.09308">
        <ele>104.175</ele>
        <time>2016-09-25T19:36:35Z</time>
      </trkpt>
      <trkpt lat="43.74267" lon="-0.09411">
        <ele>106.854</ele>
        <time>2016-09-25T19:36:55Z</time>
      </trkpt>
      <trkpt lat="43.74213" lon="-0.09542">
        <ele>110.323</ele>
        <time>2016-09-25T19:37:15Z</time>
      </trkpt>
      <trkpt lat="43.74172" lon="-0.09585">
        <ele>111.269</ele>
        <time>2016-09-25T19:37:35Z</time>
      </trkpt>
      <trkpt lat="43.74179" lon="-0.09649">
        <ele>114.52</ele>
        <time>2016-09-25T19:37:55Z</time>
      </trkpt>
      <trkpt lat="43.74155" lon="-0.09707">
        <ele>116.363</ele>
        <time>2016-09-25T19:38:15Z</time>
      </trkpt>
      <trkpt lat="43.74171" lon="-0.09761">
        <ele>122.382</ele>
        <time>2016-09-25T19:38:35Z</time>
      </trkpt>
      <trkpt lat="43.74158" lon="-0.09834">
        <ele>126.137</ele>
        <time>2016-09-25T19:38:55Z</time>
      </trkpt>
      <trkpt lat="43.74176" lon="-0.09926">
        <ele>131.149</ele>
        <time>2016-09-25T19:39:15Z</time>
      </trkpt>
      <trkpt lat="43.7434" lon="-0.10218">
        <ele>132.113</ele>
        <time>2016-09-25T19:39:35Z</time>
      </trkpt>
      <trkpt lat="43.74275" lon="-0.10396">
        <ele>131.008</ele>
        <time>2016-09-25T19:39:55Z</time>
      </trkpt>
      <trkpt lat="43.74486" lon="-0.10649">
        <ele>130.049</ele>
        <time>2016-09-25T19:40:15Z</time>
      </trkpt>
      <trkpt lat="43.74417" lon="-0.10709">
        <ele>130.056</ele>
        <time>2016-09-25T19:40:35Z</time>
      </trkpt>
      <trkpt lat="43.74445" lon="-0.10896">
        <ele>130.035</ele>
        <time>2016-09-25T19:40:55Z</time>
      </trkpt>
      <trkpt lat="43.74531" lon="-0.11078">
        <ele>123.774</ele>
        <time>2016-09-25T19:41:15Z</time>
      </trkpt>
      <trkpt lat="43.74487" lon="-0.11187">
        <ele>120.07</ele>
        <time>2016-09-25T19:41:35Z</time>
      </trkpt>
      <trkpt lat="43.74431" lon="-0.11209">
        <ele>118.931</ele>
        <time>2016-09-25T19:41:55Z</time>
      </trkpt>
      <trkpt lat="43.74315" lon="-0.1131">
        <ele>115.014</ele>
        <time>2016-09-25T19:42:15Z</time>
      </trkpt>
      <trkpt lat="43.74284" lon="-0.11312">
        <ele>115.083</ele>
        <time>2016-09-25T19:42:35Z</time>
      </trkpt>
      <trkpt lat="43.74194" lon="-0.11194">
        <ele>112.054</ele>
        <time>2016-09-25T19:42:55Z</time>
      </trkpt>
      <trkpt lat="43.74047" lon="-0.11318">
        <ele>127.656</ele>
        <time>2016-09-25T19:43:15Z</time>
      </trkpt>
      <trkpt lat="43.74039" lon="-0.11406">
        <ele>129.411</ele>
        <time>2016-09-25T19:43:35Z</time>
      </trkpt>
      <trkpt lat="43.7392" lon="-0.11415">
        <ele>130.008</ele>
        <time>2016-09-25T19:43:55Z</time>
      </trkpt>
      <trkpt lat="43.73914" lon="-0.11486">
        <ele>130.071</ele>
        <time>2016-09-25T19:44:15Z</time>
      </trkpt>
      <trkpt lat="43.7387" lon="-0.11516">
        <ele>128.958</ele>
        <time>2016-09-25T19:44:35Z</time>
      </trkpt>
      <trkpt lat="43.73814" lon="-0.11587">
        <ele>124.457</ele>
        <time>2016-09-25T19:44:55Z</time>
      </trkpt>
      <trkpt lat="43.73755" lon="-0.11683">
        <ele>124.576</ele>
        <time>2016-09-25T19:45:15Z</time>
      </trkpt>
      <trkpt lat="43.73676" lon="-0.11711">
        <ele>114.862</ele>
        <time>2016-09-25T19:45:35Z</time>
      </trkpt>
      <trkpt lat="43.73644" lon="-0.11739">
        <ele>109.943</ele>
        <time>2016-09-25T19:45:55Z</time>
      </trkpt>
      <trkpt lat="43.73644" lon="-0.11739">
        <ele>109.936</ele>
        <time>2016-09-25T19:46:15Z</time>
      </trkpt>
      <trkpt lat="43.73603" lon="-0.11573">
        <ele>106.065</ele>
        <time>2016-09-25T19:46:35Z</time>
      </trkpt>
      <trkpt lat="43.73603" lon="-0.11573">
        <ele>106.049</ele>
        <time>2016-09-25T19:46:55Z</time>
      </trkpt>
      <trkpt lat="43.73577" lon="-0.11592">
        <ele>105.002</ele>
        <time>2016-09-25T19:47:15Z</time>
      </trkpt>
      <trkpt lat="43.73565" lon="-0.11661">
        <ele>106.222</ele>
        <time>2016-09-25T19:47:35Z</time>
      </trkpt>
      <trkpt lat="43.73402" lon="-0.11792">
        <ele>124.008</ele>
        <time>2016-09-25T19:47:55Z</time>
      </trkpt>
      <trkpt lat="43.73334" lon="-0.11794">
        <ele>126.14</ele>
        <time>2016-09-25T19:48:15Z</time>
      </trkpt>
      <trkpt lat="43.73293" lon="-0.11824">
        <ele>134.597</ele>
        <time>2016-09-25T19:48:35Z</time>
      </trkpt>
      <trkpt lat="43.73262" lon="-0.11819">
        <ele>133.736</ele>
        <time>2016-09-25T19:48:55Z</time>
      </trkpt>
      <trkpt lat="43.73245" lon="-0.11845">
        <ele>134.015</ele>
        <time>2016-09-25T19:49:15Z</time>
      </trkpt>
      <trkpt lat="43.73247" lon="-0.11933">
        <ele>135.071</ele>
        <time>2016-09-25T19:49:35Z</time>
      </trkpt>
      <trkpt lat="43.73208" lon="-0.12053">
        <ele>135.032</ele>
        <time>2016-09-25T19:49:55Z</time>
      </trkpt>
      <trkpt lat="43.73146" lon="-0.12154">
        <ele>131.475</ele>
        <time>2016-09-25T19:50:15Z</time>
      </trkpt>
      <trkpt lat="43.73117" lon="-0.1224">
        <ele>130.884</ele>
        <time>2016-09-25T19:50:35Z</time>
      </trkpt>
      <trkpt lat="43.73095" lon="-0.12352">
        <ele>133.239</ele>
        <time>2016-09-25T19:50:55Z</time>
      </trkpt>
      <trkpt lat="43.73174" lon="-0.1242">
        <ele>127.501</ele>
        <time>2016-09-25T19:51:15Z</time>
      </trkpt>
      <trkpt lat="43.72941" lon="-0.12972">
        <ele>140.321</ele>
        <time>2016-09-25T19:51:35Z</time>
      </trkpt>
      <trkpt lat="43.72856" lon="-0.12903">
        <ele>150.008</ele>
        <time>2016-09-25T19:51:55Z</time>
      </trkpt>
      <trkpt lat="43.72839" lon="-0.13313">
        <ele>151.829</ele>
        <time>2016-09-25T19:52:15Z</time>
      </trkpt>
      <trkpt lat="43.728" lon="-0.13517">
        <ele>154.266</ele>
        <time>2016-09-25T19:52:35Z</time>
      </trkpt>
      <trkpt lat="43.72771" lon="-0.13551">
        <ele>158.765</ele>
        <time>2016-09-25T19:52:55Z</time>
      </trkpt>
      <trkpt lat="43.72762" lon="-0.13721">
        <ele>160.074</ele>
        <time>2016-09-25T19:53:15Z</time>
      </trkpt>
      <trkpt lat="43.72717" lon="-0.13712">
        <ele>156.86</ele>
        <time>2016-09-25T19:53:35Z</time>
      </trkpt>
      <trkpt lat="43.72554" lon="-0.13826">
        <ele>149.251</ele>
        <time>2016-09-25T19:53:55Z</time>
      </trkpt>
      <trkpt lat="43.72441" lon="-0.13856">
        <ele>146.484</ele>
        <time>2016-09-25T19:54:15Z</time>
      </trkpt>
      <trkpt lat="43.72368" lon="-0.13637">
        <ele>155.063</ele>
        <time>2016-09-25T19:54:35Z</time>
      </trkpt>
      <trkpt lat="43.72323" lon="-0.13622">
        <ele>154.997</ele>
        <time>2016-09-25T19:54:55Z</time>
      </trkpt>
      <trkpt lat="43.7229" lon="-0.13648">
        <ele>152.023</ele>
        <time>2016-09-25T19:55:15Z</time>
      </trkpt>
      <trkpt lat="43.72241" lon="-0.13622">
        <ele>145.625</ele>
        <time>2016-09-25T19:55:35Z</time>
      </trkpt>
      <trkpt lat="43.72137" lon="-0.13671">
        <ele>138.108</ele>
        <time>2016-09-25T19:55:55Z</time>
      </trkpt>
      <trkpt lat="43.71997" lon="-0.13922">
        <ele>147.865</ele>
        <time>2016-09-25T19:56:15Z</time>
      </trkpt>
      <trkpt lat="43.71937" lon="-0.13924">
        <ele>144.672</ele>
        <time>2016-09-25T19:56:35Z</time>
      </trkpt>
      <trkpt lat="43.71864" lon="-0.13982">
        <ele>144.131</ele>
        <time>2016-09-25T19:56:55Z</time>
      </trkpt>
      <trkpt lat="43.71819" lon="-0.14019">
        <ele>141.89</ele>
        <time>2016-09-25T19:57:15Z</time>
      </trkpt>
      <trkpt lat="43.71668" lon="-0.14042">
        <ele>144.666</ele>
        <time>2016-09-25T19:57:35Z</time>
      </trkpt>
      <trkpt lat="43.71574" lon="-0.1407">
        <ele>145.087</ele>
        <time>2016-09-25T19:57:55Z</time>
      </trkpt>
      <trkpt lat="43.71555" lon="-0.1403">
        <ele>145.03</ele>
        <time>2016-09-25T19:58:15Z</time>
      </trkpt>
      <trkpt lat="43.7142" lon="-0.1407">
        <ele>140.079</ele>
        <time>2016-09-25T19:58:35Z</time>
      </trkpt>
      <trkpt lat="43.71281" lon="-0.14087">
        <ele>138.275</ele>
        <time>2016-09-25T19:58:55Z</time>
      </trkpt>
      <trkpt lat="43.71274" lon="-0.1406">
        <ele>137.028</ele>
        <time>2016-09-25T19:59:15Z</time>
      </trkpt>
      <trkpt lat="43.71105" lon="-0.14055">
        <ele>135.02</ele>
        <time>2016-09-25T19:59:35Z</time>
      </trkpt>
      <trkpt lat="43.71105" lon="-0.14055">
        <ele>135.008</ele>
        <time>2016-09-25T19:59:55Z</time>
      </trkpt>
      <trkpt lat="43.71022" lon="-0.141">
        <ele>133.453</ele>
        <time>2016-09-25T20:00:15Z</time>
      </trkpt>
      <trkpt lat="43.70958" lon="-0.14111">
        <ele>130.08</ele>
        <time>2016-09-25T20:00:35Z</time>
      </trkpt>
      <trkpt lat="43.70893" lon="-0.14169">
        <ele>127.379</ele>
        <time>2016-09-25T20:00:55Z</time>
      </trkpt>
      <trkpt lat="43.70893" lon="-0.14169">
        <ele>127.338</ele>
        <time>2016-09-25T20:01:15Z</time>
      </trkpt>
      <trkpt lat="43.70892" lon="-0.14221">
        <ele>126.274</ele>
        <time>2016-09-25T20:01:35Z</time>
      </trkpt>
      <trkpt lat="43.70771" lon="-0.14367">
        <ele>113.515</ele>
        <time>2016-09-25T20:01:55Z</time>
      </trkpt>
      <trkpt lat="43.70695" lon="-0.14414">
        <ele>114.888</ele>
        <time>2016-09-25T20:02:15Z</time>
      </trkpt>
      <trkpt lat="43.7065" lon="-0.14459">
        <ele>119.697</ele>
        <time>2016-09-25T20:02:35Z</time>
      </trkpt>
      <trkpt lat="43.70642" lon="-0.14506">
        <ele>124.322</ele>
        <time>2016-09-25T20:02:55Z</time>
      </trkpt>
      <trkpt lat="43.70667" lon="-0.14605">
        <ele>129.862</ele>
        <time>2016-09-25T20:03:15Z</time>
      </trkpt>
      <trkpt lat="43.70609" lon="-0.14714">
        <ele>125.508</ele>
        <time>2016-09-25T20:03:35Z</time>
      </trkpt>
      <trkpt lat="43.70754" lon="-0.14822">
        <ele>134.908</ele>
        <time>2016-09-25T20:03:55Z</time>
      </trkpt>
      <trkpt lat="43.70879" lon="-0.14957">
        <ele>137.548</ele>
        <time>2016-09-25T20:04:15Z</time>
      </trkpt>
      <trkpt lat="43.70836" lon="-0.14972">
        <ele>141.825</ele>
        <time>2016-09-25T20:04:35Z</time>
      </trkpt>
      <trkpt lat="43.70845" lon="-0.15146">
        <ele>141.614</ele>
        <time>2016-09-25T20:04:55Z</time>
      </trkpt>
      <trkpt lat="43.70788" lon="-0.15212">
        <ele>143.713</ele>
        <time>2016-09-25T20:05:15Z</time>
      </trkpt>
      <trkpt lat="43.70788" lon="-0.15212">
        <ele>143.729</ele>
        <time>2016-09-25T20:05:35Z</time>
      </trkpt>
      <trkpt lat="43.70685" lon="-0.15405">
        <ele>142.52</ele>
        <time>2016-09-25T20:05:55Z</time>
      </trkpt>
      <trkpt lat="43.70626" lon="-0.15457">
        <ele>139.063</ele>
        <time>2016-09-25T20:06:15Z</time>
      </trkpt>
      <trkpt lat="43.70392" lon="-0.15536">
        <ele>133.292</ele>
        <time>2016-09-25T20:06:35Z</time>
      </trkpt>
      <trkpt lat="43.70145" lon="-0.15663">
        <ele>111.629</ele>
        <time>2016-09-25T20:06:55Z</time>
      </trkpt>
      <trkpt lat="43.70139" lon="-0.15867">
        <ele>105.2</ele>
        <time>2016-09-25T20:07:15Z</time>
      </trkpt>
      <trkpt lat="43.70068" lon="-0.15908">
        <ele>105.02</ele>
        <time>2016-09-25T20:07:35Z</time>
      </trkpt>
      <trkpt lat="43.70034" lon="-0.15955">
        <ele>105.108</ele>
        <time>2016-09-25T20:07:55Z</time>
      </trkpt>
      <trkpt lat="43.69928" lon="-0.15987">
        <ele>104.088</ele>
        <time>2016-09-25T20:08:15Z</time>
      </trkpt>
      <trkpt lat="43.69809" lon="-0.16058">
        <ele>103.065</ele>
        <time>2016-09-25T20:08:35Z</time>
      </trkpt>
      <trkpt lat="43.6972" lon="-0.16135">
        <ele>102.084</ele>
        <time>2016-09-25T20:08:55Z</time>
      </trkpt>
      <trkpt lat="43.69612" lon="-0.16287">
        <ele>100.783</ele>
        <time>2016-09-25T20:09:15Z</time>
      </trkpt>
      <trkpt lat="43.69497" lon="-0.16388">
        <ele>99.099</ele>
        <time>2016-09-25T20:09:35Z</time>
      </trkpt>
      <trkpt lat="43.69432" lon="-0.16581">
        <ele>99.05</ele>
        <time>2016-09-25T20:09:55Z</time>
      </trkpt>
      <trkpt lat="43.69395" lon="-0.1668">
        <ele>98.083</ele>
        <time>2016-09-25T20:10:15Z</time>
      </trkpt>
      <trkpt lat="43.69353" lon="-0.17047">
        <ele>97.022</ele>
        <time>2016-09-25T20:10:35Z</time>
      </trkpt>
      <trkpt lat="43.69312" lon="-0.17158">
        <ele>97.041</ele>
        <time>2016-09-25T20:10:55Z</time>
      </trkpt>
      <trkpt lat="43.69257" lon="-0.17236">
        <ele>97.081</ele>
        <time>2016-09-25T20:11:15Z</time>
      </trkpt>
      <trkpt lat="43.68949" lon="-0.1747">
        <ele>97.009</ele>
        <time>2016-09-25T20:11:35Z</time>
      </trkpt>
      <trkpt lat="43.69486" lon="-0.19416">
        <ele>92.008</ele>
        <time>2016-09-25T20:11:55Z</time>
      </trkpt>
      <trkpt lat="43.69486" lon="-0.19416">
        <ele>92.04</ele>
        <time>2016-09-25T20:12:15Z</time>
      </trkpt>
      <trkpt lat="43.69665" lon="-0.20087">
        <ele>92.037</ele>
        <time>2016-09-25T20:12:35Z</time>
      </trkpt>
      <trkpt lat="43.69731" lon="-0.20362">
        <ele>92.096</ele>
        <time>2016-09-25T20:12:55Z</time>
      </trkpt>
      <trkpt lat="43.69544" lon="-0.20523">
        <ele>90.695</ele>
        <time>2016-09-25T20:13:15Z</time>
      </trkpt>
      <trkpt lat="43.69554" lon="-0.20572">
        <ele>90.411</ele>
        <time>2016-09-25T20:13:35Z</time>
      </trkpt>
      <trkpt lat="43.6935" lon="-0.20723">
        <ele>85.692</ele>
        <time>2016-09-25T20:13:55Z</time>
      </trkpt>
      <trkpt lat="43.69416" lon="-0.20823">
        <ele>85.435</ele>
        <time>2016-09-25T20:14:15Z</time>
      </trkpt>
      <trkpt lat="43.69416" lon="-0.20823">
        <ele>85.484</ele>
        <time>2016-09-25T20:14:35Z</time>
      </trkpt>
      <trkpt lat="43.6963" lon="-0.21836">
        <ele>84.083</ele>
        <time>2016-09-25T20:14:55Z</time>
      </trkpt>
      <trkpt lat="43.69932" lon="-0.23239">
        <ele>82.025</ele>
        <time>2019-03-30T18:01:05Z</time>
      </trkpt>
      <trkpt lat="43.7015" lon="-0.23435">
        <ele>81.017</ele>
        <time>2019-03-30T18:01:25Z</time>
      </trkpt>
      <trkpt lat="43.7017" lon="-0.23669">
        <ele>80.908</ele>
        <time>2016-09-25T20:15:55Z</time>
      </trkpt>
      <trkpt lat="43.70198" lon="-0.23802">
        <ele>80.014</ele>
        <time>2016-09-25T20:16:15Z</time>
      </trkpt>
      <trkpt lat="43.70302" lon="-0.23752">
        <ele>81.011</ele>
        <time>2016-09-25T20:16:35Z</time>
      </trkpt>
      <trkpt lat="43.70397" lon="-0.24132">
        <ele>80.09</ele>
        <time>2016-09-25T20:16:55Z</time>
      </trkpt>
      <trkpt lat="43.70293" lon="-0.24184">
        <ele>80.029</ele>
        <time>2016-09-25T20:17:15Z</time>
      </trkpt>
      <trkpt lat="43.70378" lon="-0.24615">
        <ele>80.035</ele>
        <time>2016-09-25T20:17:35Z</time>
      </trkpt>
      <trkpt lat="43.70347" lon="-0.24838">
        <ele>79.596</ele>
        <time>2016-09-25T20:17:55Z</time>
      </trkpt>
      <trkpt lat="43.70308" lon="-0.24978">
        <ele>77.959</ele>
        <time>2016-09-25T20:18:15Z</time>
      </trkpt>
      <trkpt lat="43.70425" lon="-0.25031">
        <ele>77.398</ele>
        <time>2016-09-25T20:18:35Z</time>
      </trkpt>
      <trkpt lat="43.70459" lon="-0.26003">
        <ele>77.014</ele>
        <time>2016-09-25T20:18:55Z</time>
      </trkpt>
      <trkpt lat="43.70412" lon="-0.26051">
        <ele>77.054</ele>
        <time>2021-01-03T16:16:20Z</time>
      </trkpt>
      <trkpt lat="43.70432" lon="-0.26089">
        <ele>77.009</ele>
        <time>2016-09-25T20:19:35Z</time>
      </trkpt>
      <trkpt lat="43.70443" lon="-0.26172">
        <ele>77.008</ele>
        <time>2021-01-03T16:17:00Z</time>
      </trkpt>
    </trkseg>
  </trk>
  <trk>
    <name><![CDATA[Moissac _ Aire sur l'Ardour_3]]></name>
    <extensions>
      <line xmlns="http://www.topografix.com/GPX/gpx_style/0/2">
        <color>FF0000</color>
        <width>4</width>
      </line>
    </extensions>
    <trkseg>
      <trkpt lat="44.01728" lon="0.79384">
        <ele>197.5</ele>
      </trkpt>
      <trkpt lat="44.0176" lon="0.79892">
        <ele>169.4</ele>
      </trkpt>
      <trkpt lat="44.017" lon="0.8">
        <ele>159.8</ele>
      </trkpt>
      <trkpt lat="44.01523" lon="0.79931">
        <ele>159</ele>
      </trkpt>
      <trkpt lat="44.01306" lon="0.80301">
        <ele>142.5</ele>
      </trkpt>
      <trkpt lat="44.01147" lon="0.80257">
        <ele>125.1</ele>
      </trkpt>
      <trkpt lat="44.00973" lon="0.8034">
        <ele>110.9</ele>
      </trkpt>
      <trkpt lat="44.00945" lon="0.80449">
        <ele>115.8</ele>
      </trkpt>
    </trkseg>
  </trk>
</gpx>